DJ4CK-1 Weather Reports


time (UTC)temp
C
wind
direction
speed
KPH
gust
KPH
rain 1hr
cm
rain 24hr
cm
rain mn
cm
humidity
%
barometer
mb
20260506034403 10 191 6.4 14.5 0.00 0.00 0.00 87 1008.1
20260506034304 10 191 6.4 14.5 0.00 0.00 0.00 87 1008.1
20260506034203 10 191 6.4 11.3 0.00 0.00 0.00 87 1008.1
20260506034103 10 192 6.4 11.3 0.00 0.00 0.00 87 1008.1
20260506034003 10 192 6.4 11.3 0.00 0.00 0.00 87 1008.1
20260506033903 10 192 6.4 11.3 0.00 0.00 0.00 87 1008.0
20260506033804 10 191 6.4 11.3 0.00 0.00 0.00 87 1008.0
20260506033704 10 190 4.8 9.7 0.00 0.00 0.00 87 1008.0
20260506033603 10 187 4.8 9.7 0.00 0.00 0.00 87 1008.0
20260506033503 10 184 6.4 16.1 0.00 0.00 0.00 87 1007.9
20260506033403 10 182 6.4 16.1 0.00 0.00 0.00 87 1007.9
20260506033303 10 182 6.4 16.1 0.00 0.00 0.00 86 1007.9
20260506033203 10 182 6.4 16.1 0.00 0.00 0.00 86 1007.9
20260506033104 11 183 6.4 12.9 0.00 0.00 0.00 86 1007.9
20260506033004 11 183 6.4 12.9 0.00 0.00 0.00 86 1007.9
20260506032903 11 182 4.8 11.3 0.00 0.00 0.00 86 1007.9
20260506032803 11 182 4.8 9.7 0.00 0.00 0.00 86 1007.9
20260506032703 11 183 4.8 9.7 0.00 0.00 0.00 86 1007.9
20260506032603 10 183 4.8 8.0 0.00 0.00 0.00 86 1007.9
20260506032504 10 182 4.8 8.0 0.00 0.00 0.00 86 1007.9
20260506032404 10 181 4.8 8.0 0.00 0.00 0.00 86 1007.9
20260506032305 10 181 4.8 8.0 0.00 0.00 0.00 86 1007.9
20260506032203 10 182 3.2 8.0 0.00 0.00 0.00 86 1007.9
20260506032103 10 184 3.2 6.4 0.00 0.00 0.00 86 1007.9
20260506032003 10 184 3.2 6.4 0.00 0.00 0.00 86 1007.9
20260506031903 10 182 3.2 8.0 0.00 0.00 0.00 86 1007.9
20260506031803 10 176 3.2 8.0 0.00 0.00 0.00 86 1007.9
20260506031704 10 173 3.2 8.0 0.00 0.00 0.00 86 1007.9
20260506031604 10 172 3.2 8.0 0.00 0.00 0.00 86 1007.9
20260506031504 10 174 3.2 8.0 0.00 0.00 0.00 86 1008.0
20260506031403 11 179 3.2 9.7 0.00 0.00 0.00 86 1008.0
20260506031303 11 181 3.2 9.7 0.00 0.00 0.00 86 1008.0
20260506031204 11 183 4.8 9.7 0.00 0.00 0.00 85 1008.0
20260506031103 11 183 3.2 9.7 0.00 0.00 0.00 85 1008.0
20260506031003 11 182 3.2 9.7 0.00 0.00 0.00 86 1008.0
20260506030903 11 182 3.2 9.7 0.00 0.00 0.00 85 1008.1
20260506030803 11 180 3.2 9.7 0.00 0.00 0.00 85 1008.1
20260506030704 11 179 3.2 9.7 0.00 0.00 0.00 85 1008.1
20260506030603 11 179 3.2 9.7 0.00 0.00 0.00 85 1008.1
20260506030503 11 178 3.2 9.7 0.00 0.00 0.00 85 1008.0
20260506030403 11 179 3.2 6.4 0.00 0.00 0.00 85 1008.0
20260506030303 11 181 3.2 4.8 0.00 0.00 0.00 85 1008.0
20260506030203 11 184 1.6 4.8 0.00 0.00 0.00 85 1008.0
20260506030104 11 187 3.2 4.8 0.00 0.00 0.00 85 1008.0
20260506030004 11 191 3.2 4.8 0.00 0.00 0.00 85 1008.0
20260506025904 11 194 1.6 4.8 0.00 0.00 0.00 85 1008.0
20260506025803 11 196 3.2 6.4 0.00 0.00 0.00 85 1008.0
20260506025703 11 195 3.2 9.7 0.00 0.00 0.00 85 1008.0
20260506025603 11 196 4.8 9.7 0.00 0.00 0.00 84 1008.0
20260506025504 11 196 4.8 12.9 0.00 0.00 0.00 84 1008.0
20260506025404 11 196 4.8 12.9 0.00 0.00 0.00 84 1008.0
20260506025305 11 198 4.8 12.9 0.00 0.00 0.00 84 1008.0
20260506025203 11 198 4.8 12.9 0.00 0.00 0.00 84 1008.0
20260506025004 11 195 4.8 9.7 0.00 0.00 0.00 84 1008.0
20260506024904 11 194 4.8 9.7 0.00 0.00 0.00 83 1008.0
20260506024803 11 194 3.2 8.0 0.00 0.00 0.00 84 1008.0
20260506024703 11 195 3.2 8.0 0.00 0.00 0.00 84 1008.0
20260506024603 11 194 3.2 6.4 0.00 0.00 0.00 84 1008.0
20260506024503 11 192 3.2 6.4 0.00 0.00 0.00 84 1008.0
20260506024403 11 190 3.2 6.4 0.00 0.00 0.00 83 1008.0
20260506024304 11 187 3.2 6.4 0.00 0.00 0.00 83 1008.0
20260506024204 11 186 3.2 9.7 0.00 0.00 0.00 83 1008.0
20260506024104 11 187 3.2 9.7 0.00 0.00 0.00 83 1008.1
20260506024003 11 188 3.2 9.7 0.00 0.00 0.00 83 1008.1
20260506023904 11 189 3.2 9.7 0.00 0.00 0.00 83 1008.1
20260506023803 11 191 3.2 9.7 0.00 0.00 0.00 84 1008.1
20260506023704 11 193 3.2 8.0 0.00 0.00 0.00 84 1008.1
20260506023604 11 192 3.2 8.0 0.00 0.00 0.00 83 1008.1
20260506023503 11 191 3.2 8.0 0.00 0.00 0.00 83 1008.1
20260506023403 11 191 3.2 6.4 0.00 0.00 0.00 83 1008.1
20260506023303 11 189 3.2 6.4 0.00 0.00 0.00 83 1008.1
20260506023203 11 187 3.2 6.4 0.00 0.00 0.00 83 1008.1
20260506023103 11 186 3.2 6.4 0.00 0.00 0.00 83 1008.1
20260506023003 11 187 4.8 6.4 0.00 0.00 0.00 83 1008.1
20260506022903 11 187 4.8 8.0 0.00 0.00 0.00 84 1008.1
20260506022803 11 189 4.8 8.0 0.00 0.00 0.00 84 1008.1
20260506022704 11 190 4.8 12.9 0.00 0.00 0.00 84 1008.1
20260506022604 11 189 4.8 12.9 0.00 0.00 0.00 83 1008.1
20260506022504 11 188 4.8 12.9 0.00 0.00 0.00 83 1008.1
20260506022403 11 187 4.8 12.9 0.00 0.00 0.00 83 1008.1
20260506022305 11 185 3.2 9.7 0.00 0.00 0.00 83 1008.1
20260506022203 11 184 3.2 6.4 0.00 0.00 0.00 83 1008.1
20260506022103 11 184 3.2 9.7 0.00 0.00 0.00 83 1008.1
20260506022004 11 184 4.8 14.5 0.00 0.00 0.00 83 1008.1
20260506021904 11 184 4.8 14.5 0.00 0.00 0.00 83 1008.1
20260506021803 11 185 4.8 14.5 0.00 0.00 0.00 82 1008.1
20260506021703 11 187 4.8 14.5 0.00 0.00 0.00 83 1008.1
20260506021603 11 191 4.8 9.7 0.00 0.00 0.00 83 1008.1
20260506021503 11 191 4.8 9.7 0.00 0.00 0.00 83 1008.1
20260506021403 11 190 4.8 9.7 0.00 0.00 0.00 83 1008.1
20260506021303 11 188 6.4 11.3 0.00 0.00 0.00 83 1008.1
20260506021203 11 186 4.8 11.3 0.00 0.00 0.00 83 1008.1
20260506021104 11 186 4.8 11.3 0.00 0.00 0.00 84 1008.1
20260506021004 11 186 4.8 11.3 0.00 0.00 0.00 84 1008.1
20260506020904 11 187 4.8 14.5 0.00 0.00 0.00 84 1008.1
20260506020803 11 188 6.4 14.5 0.00 0.00 0.00 84 1008.1
20260506020703 11 189 6.4 14.5 0.00 0.00 0.00 84 1008.1
20260506020603 11 188 6.4 14.5 0.00 0.00 0.00 84 1008.1
20260506020504 11 189 6.4 12.9 0.00 0.00 0.00 84 1008.1
20260506020404 11 189 4.8 12.9 0.00 0.00 0.00 84 1008.1
20260506020303 11 190 4.8 12.9 0.00 0.00 0.00 84 1008.1
20260506020203 11 192 3.2 12.9 0.00 0.00 0.00 83 1008.1
20260506020103 11 195 3.2 6.4 0.00 0.00 0.00 83 1008.0
20260506020004 11 194 3.2 6.4 0.00 0.00 0.00 83 1008.0
20260506015904 11 192 3.2 6.4 0.00 0.00 0.00 83 1008.0
20260506015804 11 189 4.8 8.0 0.00 0.00 0.00 83 1008.0
20260506015703 11 188 4.8 8.0 0.00 0.00 0.00 83 1008.0
20260506015604 11 187 4.8 8.0 0.00 0.00 0.00 84 1008.0
20260506015504 11 189 4.8 8.0 0.00 0.00 0.00 84 1008.0
20260506015404 11 191 4.8 8.0 0.00 0.00 0.00 84 1008.0
20260506015306 11 192 4.8 8.0 0.00 0.00 0.00 84 1008.0
20260506015204 11 194 4.8 8.0 0.00 0.00 0.00 84 1008.0
20260506015104 11 195 4.8 11.3 0.00 0.00 0.00 84 1008.1
20260506015004 11 196 4.8 11.3 0.00 0.00 0.00 83 1008.1
20260506014903 11 196 6.4 11.3 0.00 0.00 0.00 82 1008.1
20260506014803 11 197 6.4 11.3 0.00 0.00 0.00 82 1008.1
20260506014703 11 197 4.8 8.0 0.00 0.00 0.00 82 1008.1
20260506014604 11 196 4.8 8.0 0.00 0.00 0.00 83 1008.1
20260506014504 11 195 4.8 8.0 0.00 0.00 0.00 83 1008.1
20260506014403 11 194 4.8 8.0 0.00 0.00 0.00 83 1008.1
20260506014304 11 193 4.8 8.0 0.00 0.00 0.00 83 1008.1
20260506014204 11 191 3.2 6.4 0.00 0.00 0.00 83 1008.1
20260506014104 11 187 4.8 6.4 0.00 0.00 0.00 83 1008.1
20260506014004 11 185 4.8 6.4 0.00 0.00 0.00 83 1008.1
20260506013904 11 185 4.8 6.4 0.00 0.00 0.00 83 1008.1
20260506013803 11 186 3.2 6.4 0.00 0.00 0.00 83 1008.1
20260506013703 11 190 3.2 6.4 0.00 0.00 0.00 83 1008.1
20260506013603 11 193 1.6 4.8 0.00 0.00 0.00 83 1008.1
20260506013503 11 195 1.6 4.8 0.00 0.00 0.00 83 1008.2
20260506013403 11 196 1.6 4.8 0.00 0.00 0.00 83 1008.2
20260506013303 11 196 3.2 6.4 0.00 0.00 0.00 82 1008.2
20260506013204 11 195 3.2 8.0 0.00 0.00 0.00 82 1008.2
20260506013103 11 194 3.2 8.0 0.00 0.00 0.00 83 1008.2
20260506013003 11 193 3.2 8.0 0.00 0.00 0.00 83 1008.2
20260506012903 11 191 3.2 8.0 0.00 0.00 0.00 83 1008.2
20260506012803 11 189 3.2 6.4 0.00 0.00 0.00 82 1008.2
20260506012703 11 190 3.2 6.4 0.00 0.00 0.00 82 1008.3
20260506012604 11 188 4.8 11.3 0.00 0.00 0.00 82 1008.3
20260506012504 11 188 3.2 11.3 0.00 0.00 0.00 82 1008.3
20260506012403 11 188 3.2 11.3 0.00 0.00 0.00 82 1008.3
20260506012307 11 188 3.2 11.3 0.00 0.00 0.00 82 1008.3
20260506012204 11 188 3.2 8.0 0.00 0.00 0.00 83 1008.3
20260506012104 11 186 4.8 8.0 0.00 0.00 0.00 83 1008.3
20260506012003 11 186 4.8 8.0 0.00 0.00 0.00 83 1008.3
20260506011903 11 186 4.8 8.0 0.00 0.00 0.00 83 1008.3
20260506011803 11 189 3.2 8.0 0.00 0.00 0.00 83 1008.3
20260506011703 11 193 3.2 6.4 0.00 0.00 0.00 83 1008.3
20260506011604 11 199 3.2 4.8 0.00 0.00 0.00 83 1008.3
20260506011504 11 203 3.2 4.8 0.00 0.00 0.00 83 1008.3
20260506011403 11 205 1.6 4.8 0.00 0.00 0.00 83 1008.3
20260506011303 11 206 1.6 4.8 0.00 0.00 0.00 83 1008.3
20260506011203 11 202 1.6 6.4 0.00 0.00 0.00 83 1008.3
20260506011103 11 197 1.6 6.4 0.00 0.00 0.00 83 1008.3
20260506011003 11 197 1.6 6.4 0.00 0.00 0.00 83 1008.3
20260506010903 11 197 1.6 6.4 0.00 0.00 0.00 83 1008.3
20260506010803 11 197 0.0 6.4 0.00 0.00 0.00 83 1008.3
20260506010703 11 204 0.0 3.2 0.00 0.00 0.00 83 1008.3
20260506010603 11 208 1.6 3.2 0.00 0.00 0.00 83 1008.3
20260506010504 11 211 1.6 3.2 0.00 0.00 0.00 83 1008.3
20260506010403 11 210 1.6 6.4 0.00 0.00 0.00 82 1008.3
20260506010304 11 207 3.2 6.4 0.00 0.00 0.00 82 1008.4
20260506010204 11 205 3.2 6.4 0.00 0.00 0.00 81 1008.4
20260506010104 11 204 3.2 6.4 0.00 0.00 0.00 81 1008.4
20260506010004 11 203 3.2 6.4 0.00 0.00 0.00 81 1008.4
20260506005903 11 204 1.6 4.8 0.00 0.00 0.00 81 1008.4
20260506005804 11 204 1.6 4.8 0.00 0.00 0.00 81 1008.4
20260506005704 11 201 3.2 6.4 0.00 0.00 0.00 81 1008.4
20260506005604 11 198 1.6 6.4 0.00 0.00 0.00 81 1008.4
20260506005504 11 197 1.6 6.4 0.00 0.00 0.00 81 1008.4
20260506005404 11 197 1.6 6.4 0.00 0.00 0.00 81 1008.4
20260506005305 11 198 1.6 4.8 0.00 0.00 0.00 81 1008.4
20260506005203 11 200 1.6 6.4 0.00 0.00 0.00 81 1008.4
20260506005104 11 202 1.6 6.4 0.00 0.00 0.00 81 1008.4
20260506005004 11 204 1.6 6.4 0.00 0.00 0.00 81 1008.4
20260506004903 11 206 1.6 6.4 0.00 0.00 0.00 81 1008.4
20260506004803 11 212 1.6 4.8 0.00 0.00 0.00 81 1008.4
20260506004703 11 215 1.6 4.8 0.00 0.00 0.00 81 1008.4
20260506004604 11 216 1.6 4.8 0.00 0.00 0.00 81 1008.4
20260506004504 11 218 3.2 6.4 0.00 0.00 0.00 81 1008.4
20260506004403 11 219 3.2 8.0 0.00 0.00 0.00 81 1008.4
20260506004303 11 219 4.8 9.7 0.00 0.00 0.00 81 1008.4
20260506004203 12 219 3.2 9.7 0.00 0.00 0.00 81 1008.4
20260506004103 12 218 3.2 9.7 0.00 0.00 0.00 80 1008.4
20260506004004 12 215 1.6 9.7 0.00 0.00 0.00 80 1008.4
20260506003904 12 210 0.0 8.0 0.00 0.00 0.00 80 1008.5
20260506003804 12 206 0.0 3.2 0.00 0.00 0.00 81 1008.5
20260506003704 12 207 0.0 3.2 0.00 0.00 0.00 81 1008.5
20260506003604 12 212 1.6 8.0 0.00 0.00 0.00 81 1008.5
20260506003504 12 216 3.2 9.7 0.00 0.00 0.00 81 1008.5
20260506003404 12 217 3.2 9.7 0.00 0.00 0.00 81 1008.5
20260506003304 12 218 3.2 9.7 0.00 0.00 0.00 81 1008.5
20260506003204 12 219 3.2 9.7 0.00 0.00 0.00 81 1008.5
20260506003103 12 218 1.6 4.8 0.00 0.00 0.00 81 1008.5
20260506003003 12 216 0.0 3.2 0.00 0.00 0.00 81 1008.5
20260506002903 12 216 0.0 3.2 0.00 0.00 0.00 82 1008.5
20260506002803 12 214 1.6 3.2 0.00 0.00 0.00 81 1008.5
20260506002703 12 213 1.6 3.2 0.00 0.00 0.00 82 1008.5
20260506002604 12 213 1.6 3.2 0.00 0.00 0.00 81 1008.5
20260506002504 12 211 1.6 4.8 0.00 0.00 0.00 81 1008.5
20260506002404 12 212 1.6 4.8 0.00 0.00 0.00 82 1008.5
20260506002306 12 210 3.2 6.4 0.00 0.00 0.00 83 1008.5
20260506002203 12 208 3.2 6.4 0.00 0.00 0.00 83 1008.5
20260506002103 12 208 3.2 9.7 0.00 0.00 0.00 82 1008.5
20260506002004 12 207 4.8 9.7 0.00 0.00 0.00 82 1008.5
20260506001904 12 207 3.2 9.7 0.00 0.00 0.00 82 1008.5
20260506001803 12 208 3.2 9.7 0.00 0.00 0.00 82 1008.5
20260506001703 12 208 3.2 8.0 0.00 0.00 0.00 83 1008.5
20260506001604 12 206 1.6 6.4 0.00 0.00 0.00 83 1008.5
20260506001504 12 202 1.6 6.4 0.00 0.00 0.00 83 1008.5
20260506001403 12 201 1.6 6.4 0.00 0.00 0.00 83 1008.5
20260506001303 12 198 3.2 6.4 0.00 0.00 0.00 84 1008.5
20260506001203 12 196 4.8 11.3 0.00 0.00 0.00 83 1008.5
20260506001104 12 194 4.8 11.3 0.00 0.00 0.00 83 1008.5
20260506001004 12 192 4.8 11.3 0.00 0.00 0.00 83 1008.5
20260506000904 12 190 6.4 11.3 0.00 0.00 0.00 83 1008.5
20260506000803 12 186 4.8 11.3 0.00 0.00 0.00 83 1008.5
20260506000703 12 185 4.8 11.3 0.00 0.00 0.00 84 1008.5
20260506000603 11 186 3.2 11.3 0.00 0.00 0.00 85 1008.5
20260506000503 11 190 3.2 8.0 0.00 0.00 0.00 85 1008.5
20260506000404 11 194 3.2 8.0 0.00 0.00 0.00 85 1008.5
20260506000303 11 195 3.2 8.0 0.00 0.00 0.00 86 1008.5
20260506000205 11 195 3.2 8.0 0.00 0.00 0.00 86 1008.5
20260506000104 11 193 3.2 6.4 0.00 0.00 0.00 86 1008.5
20260505235903 11 187 3.2 8.0 0.00 0.00 0.00 87 1008.6
20260505235804 11 185 3.2 8.0 0.00 0.00 0.00 87 1008.6
20260505235703 11 184 3.2 8.0 0.00 0.00 0.00 87 1008.6
20260505235603 11 185 1.6 4.8 0.00 0.00 0.00 87 1008.6
20260505235503 11 186 3.2 4.8 0.00 0.00 0.00 87 1008.6
20260505235404 11 188 3.2 6.4 0.00 0.00 0.00 87 1008.6
20260505235305 11 189 3.2 6.4 0.00 0.00 0.00 87 1008.6
20260505235203 11 191 3.2 6.4 0.00 0.00 0.00 87 1008.6
20260505235104 11 192 3.2 6.4 0.00 0.00 0.00 87 1008.6
20260505235004 11 193 3.2 4.8 0.00 0.00 0.00 87 1008.6
20260505234903 11 190 3.2 6.4 0.00 0.00 0.00 87 1008.6
20260505234803 11 186 3.2 6.4 0.00 0.00 0.00 87 1008.6
20260505234703 11 184 4.8 6.4 0.00 0.00 0.00 87 1008.6
20260505234603 11 183 3.2 6.4 0.00 0.00 0.00 87 1008.6
20260505234503 11 183 3.2 6.4 0.00 0.00 0.00 87 1008.6
20260505234403 11 186 3.2 6.4 0.00 0.00 0.00 88 1008.6
20260505234304 11 187 3.2 4.8 0.00 0.00 0.00 89 1008.6
20260505234203 11 186 3.2 4.8 0.00 0.00 0.00 89 1008.6
20260505234103 11 184 3.2 4.8 0.00 0.00 0.00 89 1008.6
20260505234004 11 180 3.2 4.8 0.00 0.00 0.00 88 1008.6
20260505233903 11 178 3.2 4.8 0.00 0.00 0.00 88 1008.6
20260505233803 11 178 1.6 4.8 0.00 0.00 0.00 89 1008.6
20260505233703 11 179 1.6 4.8 0.00 0.00 0.00 89 1008.6
20260505233604 11 181 1.6 4.8 0.00 0.00 0.00 89 1008.6
20260505233504 11 179 1.6 6.4 0.00 0.00 0.00 89 1008.6
20260505233403 11 179 1.6 6.4 0.00 0.00 0.00 89 1008.6
20260505233303 11 179 1.6 6.4 0.00 0.00 0.00 89 1008.6
20260505233203 11 181 1.6 6.4 0.00 0.00 0.00 89 1008.6
20260505233103 11 186 1.6 4.8 0.00 0.00 0.00 89 1008.6
20260505233003 11 187 3.2 4.8 0.00 0.00 0.00 89 1008.6
20260505232903 11 187 3.2 4.8 0.00 0.00 0.00 89 1008.6
20260505232803 11 188 1.6 4.8 0.00 0.00 0.00 89 1008.6
20260505232704 11 186 1.6 3.2 0.00 0.00 0.00 89 1008.6
20260505232603 11 184 1.6 3.2 0.00 0.00 0.00 89 1008.6
20260505232503 11 187 1.6 4.8 0.00 0.00 0.00 89 1008.6
20260505232403 11 187 1.6 4.8 0.00 0.00 0.00 90 1008.7
20260505232305 11 186 1.6 4.8 0.00 0.00 0.00 90 1008.7
20260505232203 11 184 3.2 4.8 0.00 0.00 0.00 90 1008.7
20260505232103 11 182 3.2 4.8 0.00 0.00 0.00 89 1008.7
20260505232004 11 181 1.6 4.8 0.00 0.00 0.00 89 1008.7
20260505231904 11 181 1.6 4.8 0.00 0.00 0.00 89 1008.7
20260505231803 11 182 3.2 4.8 0.00 0.00 0.00 90 1008.7
20260505231703 11 182 3.2 4.8 0.00 0.00 0.00 90 1008.7
20260505231603 11 181 3.2 4.8 0.00 0.00 0.00 90 1008.7
20260505231504 11 178 3.2 4.8 0.00 0.00 0.00 90 1008.7
20260505231403 11 174 1.6 4.8 0.00 0.00 0.00 89 1008.7
20260505231303 11 171 1.6 3.2 0.00 0.00 0.00 89 1008.7
20260505231204 11 172 1.6 3.2 0.00 0.00 0.00 89 1008.6
20260505231103 11 176 1.6 3.2 0.00 0.00 0.00 89 1008.6
20260505231003 12 184 1.6 3.2 0.00 0.00 0.00 89 1008.7
20260505230903 12 191 1.6 3.2 0.00 0.00 0.00 89 1008.7
20260505230803 12 198 1.6 4.8 0.00 0.00 0.00 89 1008.7
20260505230703 12 200 1.6 4.8 0.00 0.00 0.00 89 1008.7
20260505230603 12 205 1.6 4.8 0.00 0.00 0.00 89 1008.7
20260505230504 12 212 1.6 4.8 0.00 0.00 0.00 89 1008.7
20260505230403 12 220 1.6 3.2 0.00 0.00 0.00 89 1008.8
20260505230303 12 223 1.6 3.2 0.00 0.00 0.00 89 1008.8
20260505230203 12 225 1.6 3.2 0.00 0.00 0.00 89 1008.8
20260505230104 12 227 1.6 3.2 0.00 0.00 0.00 89 1008.7
20260505230003 12 229 1.6 3.2 0.00 0.00 0.00 89 1008.7
20260505225903 12 229 1.6 3.2 0.00 0.00 0.00 89 1008.7
20260505225803 12 231 0.0 3.2 0.00 0.00 0.00 89 1008.8
20260505225703 12 235 0.0 1.6 0.00 0.00 0.00 89 1008.8
20260505225603 11 260 0.0 3.2 0.00 0.00 0.00 90 1008.8
20260505225504 11 254 1.6 3.2 0.00 0.00 0.00 90 1008.8
20260505225403 12 248 1.6 4.8 0.00 0.00 0.00 90 1008.7
20260505225305 12 244 1.6 4.8 0.00 0.00 0.00 90 1008.8
20260505225203 11 230 1.6 4.8 0.00 0.00 0.00 90 1008.7
20260505225104 12 226 1.6 4.8 0.00 0.00 0.00 90 1008.7
20260505225003 12 224 1.6 3.2 0.00 0.00 0.00 90 1008.7
20260505224903 12 223 1.6 3.2 0.00 0.00 0.00 90 1008.7
20260505224804 12 225 1.6 3.2 0.00 0.00 0.00 90 1008.7
20260505224703 12 228 1.6 3.2 0.00 0.00 0.00 90 1008.7
20260505224603 12 229 1.6 3.2 0.00 0.00 0.00 90 1008.7
20260505224503 12 230 1.6 4.8 0.00 0.00 0.00 90 1008.7
20260505224403 12 230 1.6 4.8 0.00 0.00 0.00 89 1008.7
20260505224303 12 229 1.6 4.8 0.00 0.00 0.00 89 1008.7
20260505224203 12 233 1.6 4.8 0.00 0.00 0.00 89 1008.7
20260505224103 12 236 0.0 3.2 0.00 0.00 0.00 89 1008.7
20260505224003 12 236 1.6 3.2 0.00 0.00 0.00 89 1008.6
20260505223903 12 238 1.6 3.2 0.00 0.00 0.00 89 1008.7
20260505223803 12 239 1.6 3.2 0.00 0.00 0.00 89 1008.7
20260505223703 12 241 1.6 3.2 0.00 0.00 0.00 89 1008.7
20260505223603 12 244 1.6 3.2 0.00 0.00 0.00 89 1008.6
20260505223503 12 247 1.6 3.2 0.00 0.00 0.00 90 1008.7
20260505223403 12 247 1.6 3.2 0.00 0.00 0.00 89 1008.7
20260505223303 12 251 1.6 4.8 0.00 0.00 0.00 89 1008.7
20260505223203 12 252 3.2 6.4 0.00 0.00 0.00 89 1008.7
20260505223103 12 252 3.2 6.4 0.00 0.00 0.00 89 1008.7
20260505223004 12 251 3.2 6.4 0.00 0.00 0.00 89 1008.7
20260505222903 12 252 3.2 6.4 0.00 0.00 0.00 89 1008.7
20260505222803 12 251 3.2 6.4 0.00 0.00 0.00 89 1008.7
20260505222704 12 251 3.2 6.4 0.00 0.00 0.00 90 1008.6
20260505222603 12 252 3.2 6.4 0.00 0.00 0.00 89 1008.6
20260505222503 12 250 1.6 6.4 0.00 0.00 0.00 89 1008.7
20260505222403 12 250 1.6 6.4 0.00 0.00 0.00 89 1008.6
20260505222305 12 250 3.2 6.4 0.00 0.00 0.00 89 1008.6
20260505222203 12 249 3.2 6.4 0.00 0.00 0.00 89 1008.6
20260505222103 12 248 3.2 6.4 0.00 0.00 0.00 89 1008.6
20260505222003 12 246 3.2 6.4 0.00 0.00 0.00 89 1008.6
20260505221903 12 246 3.2 4.8 0.00 0.00 0.00 89 1008.6
20260505221803 12 246 1.6 3.2 0.00 0.00 0.00 89 1008.6
20260505221703 12 248 1.6 4.8 0.00 0.00 0.00 89 1008.5
20260505221603 12 249 1.6 4.8 0.00 0.00 0.00 89 1008.5
20260505221503 12 247 1.6 6.4 0.00 0.00 0.00 89 1008.5
20260505221403 12 246 3.2 6.4 0.00 0.00 0.00 89 1008.5
20260505221303 12 246 3.2 6.4 0.00 0.00 0.00 89 1008.5
20260505221203 12 247 4.8 6.4 0.00 0.00 0.00 89 1008.5
20260505221103 12 247 3.2 6.4 0.00 0.00 0.00 88 1008.6
20260505221004 12 249 3.2 6.4 0.00 0.00 0.00 89 1008.6
20260505220903 12 250 3.2 6.4 0.00 0.00 0.00 89 1008.5
20260505220803 12 252 3.2 6.4 0.00 0.00 0.00 89 1008.5
20260505220703 12 255 3.2 6.4 0.00 0.00 0.00 89 1008.5
20260505220603 12 260 3.2 4.8 0.00 0.00 0.00 89 1008.5
20260505220503 12 261 3.2 6.4 0.00 0.00 0.00 89 1008.5
20260505220403 12 261 3.2 6.4 0.00 0.00 0.00 89 1008.5
20260505220303 12 260 3.2 6.4 0.00 0.00 0.00 89 1008.5
20260505220203 12 258 4.8 6.4 0.00 0.00 0.00 89 1008.5
20260505220103 12 259 4.8 6.4 0.00 0.00 0.00 89 1008.5
20260505220003 12 259 4.8 6.4 0.00 0.00 0.00 89 1008.5
20260505215904 12 259 4.8 6.4 0.00 0.00 0.00 89 1008.5
20260505215803 12 260 4.8 6.4 0.00 0.00 0.00 89 1008.5
20260505215703 12 260 4.8 8.0 0.00 0.00 0.00 89 1008.4
20260505215603 12 260 4.8 8.0 0.00 0.00 0.00 88 1008.4
20260505215503 12 262 4.8 8.0 0.00 0.00 0.00 88 1008.4
20260505215403 12 263 4.8 8.0 0.00 0.00 0.00 88 1008.3
20260505215305 12 264 4.8 8.0 0.00 0.00 0.00 88 1008.3
20260505215203 12 265 4.8 8.0 0.00 0.00 0.00 88 1008.3
20260505215103 12 265 4.8 6.4 0.00 0.00 0.00 88 1008.3
20260505215003 12 264 4.8 8.0 0.00 0.00 0.00 88 1008.3
20260505214903 12 265 4.8 8.0 0.00 0.00 0.00 88 1008.3
20260505214803 12 266 4.8 8.0 0.00 0.00 0.00 88 1008.2
20260505214703 12 267 4.8 9.7 0.00 0.00 0.00 87 1008.3
20260505214604 12 270 4.8 9.7 0.00 0.00 0.00 87 1008.3
20260505214503 12 272 4.8 9.7 0.00 0.00 0.00 88 1008.3
20260505214403 12 272 4.8 9.7 0.00 0.00 0.00 88 1008.3
20260505214303 12 273 3.2 6.4 0.00 0.00 0.00 88 1008.4
20260505214203 12 274 3.2 6.4 0.00 0.00 0.00 88 1008.4
20260505214103 12 274 3.2 4.8 0.00 0.00 0.00 88 1008.4
20260505214004 12 274 3.2 4.8 0.00 0.00 0.00 88 1008.3
20260505213903 12 272 3.2 4.8 0.00 0.00 0.00 87 1008.3
20260505213803 12 271 3.2 4.8 0.00 0.00 0.00 88 1008.3
20260505213704 12 270 3.2 4.8 0.00 0.00 0.00 88 1008.3
20260505213603 12 270 3.2 6.4 0.00 0.00 0.00 88 1008.3
20260505213503 12 269 4.8 6.4 0.00 0.00 0.00 88 1008.3
20260505213403 12 267 4.8 6.4 0.00 0.00 0.00 88 1008.3
20260505213303 12 266 4.8 6.4 0.00 0.00 0.00 88 1008.3
20260505213203 12 265 3.2 6.4 0.00 0.00 0.00 87 1008.3
20260505213103 12 264 3.2 6.4 0.00 0.00 0.00 87 1008.3
20260505213003 12 263 3.2 6.4 0.00 0.00 0.00 87 1008.3
20260505212903 12 263 3.2 6.4 0.00 0.00 0.00 87 1008.3
20260505212803 12 262 4.8 6.4 0.00 0.00 0.00 88 1008.3
20260505212704 12 261 3.2 6.4 0.00 0.00 0.00 87 1008.3
20260505212603 12 262 3.2 6.4 0.00 0.00 0.00 87 1008.3
20260505212503 12 263 3.2 6.4 0.00 0.00 0.00 87 1008.3
20260505212404 12 265 3.2 4.8 0.00 0.00 0.00 87 1008.3
20260505212305 12 267 3.2 4.8 0.00 0.00 0.00 87 1008.3
20260505212203 12 267 3.2 6.4 0.00 0.00 0.00 87 1008.3
20260505212103 12 268 3.2 6.4 0.00 0.00 0.00 87 1008.3
20260505212003 12 270 4.8 6.4 0.00 0.00 0.00 87 1008.3
20260505211903 12 272 4.8 6.4 0.00 0.00 0.00 88 1008.3
20260505211803 12 274 3.2 6.4 0.00 0.00 0.00 87 1008.3
20260505211703 12 275 3.2 6.4 0.00 0.00 0.00 87 1008.3
20260505211603 12 275 3.2 6.4 0.00 0.00 0.00 87 1008.3
20260505211503 12 275 3.2 4.8 0.00 0.00 0.00 87 1008.3
20260505211404 12 275 1.6 4.8 0.00 0.00 0.00 87 1008.3
20260505211303 12 277 3.2 4.8 0.00 0.00 0.00 87 1008.3
20260505211203 12 280 3.2 4.8 0.00 0.00 0.00 87 1008.3
20260505211104 12 283 3.2 6.4 0.00 0.00 0.00 86 1008.4
20260505211003 12 284 3.2 6.4 0.00 0.00 0.00 86 1008.4
20260505210903 12 284 3.2 6.4 0.00 0.00 0.00 87 1008.4
20260505210803 12 284 3.2 6.4 0.00 0.00 0.00 86 1008.4
20260505210703 12 282 3.2 6.4 0.00 0.00 0.00 86 1008.4
20260505210603 12 281 3.2 6.4 0.00 0.00 0.00 86 1008.4
20260505210504 12 280 3.2 6.4 0.00 0.00 0.00 87 1008.4
20260505210403 12 278 3.2 6.4 0.00 0.00 0.00 87 1008.4
20260505210303 12 276 3.2 6.4 0.00 0.00 0.00 88 1008.3
20260505210203 12 274 3.2 6.4 0.00 0.00 0.00 87 1008.3
20260505210003 12 270 3.2 4.8 0.00 0.00 0.00 88 1008.3
20260505205903 12 269 3.2 4.8 0.00 0.00 0.00 87 1008.2
20260505205803 12 269 3.2 4.8 0.00 0.00 0.00 87 1008.2
20260505205703 12 270 3.2 4.8 0.00 0.00 0.00 88 1008.2
20260505205603 12 270 3.2 4.8 0.00 0.00 0.00 87 1008.2
20260505205504 12 271 3.2 4.8 0.00 0.00 0.00 88 1008.2
20260505205403 12 271 3.2 4.8 0.00 0.00 0.00 88 1008.1
20260505205305 12 272 3.2 4.8 0.00 0.00 0.00 87 1008.1
20260505205203 12 272 3.2 4.8 0.00 0.00 0.00 88 1008.1
20260505205104 12 271 3.2 4.8 0.00 0.00 0.00 88 1008.1
20260505205003 12 270 3.2 4.8 0.00 0.00 0.00 88 1008.1
20260505204903 12 270 3.2 4.8 0.00 0.00 0.00 87 1008.1
20260505204803 12 271 3.2 4.8 0.00 0.00 0.00 87 1008.1
20260505204703 12 274 3.2 4.8 0.00 0.00 0.00 87 1008.1
20260505204603 12 278 3.2 6.4 0.00 0.00 0.00 87 1008.1
20260505204503 12 281 3.2 6.4 0.00 0.00 0.00 87 1008.1
20260505204403 12 282 3.2 6.4 0.00 0.00 0.00 87 1008.1
20260505204303 12 282 3.2 6.4 0.00 0.00 0.00 86 1008.1
20260505204203 12 281 3.2 6.4 0.00 0.00 0.00 86 1008.1
20260505204103 12 277 1.6 4.8 0.00 0.00 0.00 86 1008.1
20260505204003 12 272 3.2 6.4 0.00 0.00 0.00 85 1008.0
20260505203903 12 272 3.2 6.4 0.00 0.00 0.00 85 1008.0
20260505203804 12 273 3.2 6.4 0.00 0.00 0.00 86 1008.0
20260505203703 12 275 4.8 8.0 0.00 0.00 0.00 85 1008.1
20260505203603 12 280 6.4 9.7 0.00 0.00 0.00 85 1008.1
20260505203503 12 282 6.4 14.5 0.00 0.00 0.00 84 1008.1
20260505203404 13 284 8.0 14.5 0.00 0.00 0.00 84 1008.1
20260505203303 13 287 8.0 14.5 0.00 0.00 0.00 84 1008.1
20260505203203 13 287 8.0 14.5 0.00 0.00 0.00 84 1008.1
20260505203103 13 289 6.4 11.3 0.00 0.00 0.00 84 1008.0
20260505203003 13 290 6.4 11.3 0.00 0.00 0.00 83 1008.0
20260505202903 13 291 6.4 11.3 0.00 0.00 0.00 83 1008.0
20260505202803 13 291 6.4 9.7 0.00 0.00 0.00 83 1008.0
20260505202704 13 292 4.8 9.7 0.00 0.00 0.00 82 1008.0
20260505202603 13 294 6.4 9.7 0.00 0.00 0.00 83 1008.0
20260505202503 13 296 6.4 9.7 0.00 0.00 0.00 81 1007.9
20260505202404 13 298 6.4 9.7 0.00 0.00 0.00 80 1007.9
20260505202306 13 298 6.4 9.7 0.00 0.00 0.00 80 1007.9
20260505202203 13 298 4.8 9.7 0.00 0.00 0.00 80 1007.9
20260505202103 13 297 4.8 9.7 0.00 0.00 0.00 79 1007.9
20260505202004 13 298 4.8 9.7 0.00 0.00 0.00 78 1007.8
20260505201903 13 299 3.2 8.0 0.00 0.00 0.00 81 1007.8
20260505201803 13 297 4.8 8.0 0.00 0.00 0.00 79 1007.8
20260505201703 13 294 3.2 8.0 0.00 0.00 0.00 78 1007.8
20260505201603 13 290 3.2 8.0 0.00 0.00 0.00 80 1007.8
20260505201503 13 286 3.2 6.4 0.00 0.00 0.00 78 1007.8
20260505201403 13 285 3.2 6.4 0.00 0.00 0.00 78 1007.8
20260505201304 13 284 3.2 8.0 0.00 0.00 0.00 78 1007.8
20260505201203 13 282 3.2 8.0 0.00 0.00 0.00 79 1007.8
20260505201103 13 279 3.2 8.0 0.00 0.00 0.00 78 1007.8
20260505201004 13 276 3.2 8.0 0.00 0.00 0.00 78 1007.8
20260505200903 13 272 3.2 6.4 0.00 0.00 0.00 77 1007.8
20260505200803 13 269 3.2 6.4 0.00 0.00 0.00 77 1007.8
20260505200703 14 266 3.2 6.4 0.00 0.00 0.00 75 1007.8
20260505200604 14 263 4.8 9.7 0.00 0.00 0.00 74 1007.8
20260505200504 14 261 4.8 9.7 0.00 0.00 0.00 74 1007.6
20260505200403 14 257 4.8 9.7 0.00 0.00 0.00 73 1007.6
20260505200303 14 253 6.4 11.3 0.00 0.00 0.00 72 1007.6
20260505200203 14 249 6.4 14.5 0.00 0.00 0.00 72 1007.6
20260505200003 14 247 8.0 14.5 0.00 0.00 0.00 70 1007.5
20260505195903 14 246 9.7 17.7 0.00 0.00 0.00 70 1007.5
20260505195804 14 246 9.7 17.7 0.00 0.00 0.00 70 1007.5
20260505195703 15 246 8.0 17.7 0.00 0.00 0.00 69 1007.5
20260505195603 15 245 6.4 17.7 0.00 0.00 0.00 68 1007.5
20260505195503 15 246 4.8 16.1 0.00 0.00 0.00 67 1007.4
20260505195404 15 245 4.8 11.3 0.00 0.00 0.00 67 1007.4
20260505195305 15 247 4.8 11.3 0.00 0.00 0.00 67 1007.3
20260505195203 15 250 4.8 11.3 0.00 0.00 0.00 67 1007.3
20260505195104 15 254 4.8 11.3 0.00 0.00 0.00 67 1007.3
20260505195003 15 260 3.2 8.0 0.00 0.00 0.00 67 1007.2
20260505194903 15 265 3.2 6.4 0.00 0.00 0.00 66 1007.2
20260505194803 15 270 3.2 6.4 0.00 0.00 0.00 66 1007.2
20260505194703 15 275 3.2 6.4 0.00 0.00 0.00 66 1007.2
20260505194603 15 278 3.2 4.8 0.00 0.00 0.00 66 1007.1
20260505194503 15 279 3.2 4.8 0.00 0.00 0.00 66 1007.1
20260505194403 15 277 1.6 4.8 0.00 0.00 0.00 66 1007.1
20260505194304 15 271 1.6 4.8 0.00 0.00 0.00 65 1007.0
20260505194203 15 266 1.6 6.4 0.00 0.00 0.00 66 1007.0
20260505194103 15 261 3.2 6.4 0.00 0.00 0.00 66 1007.0
20260505194003 15 258 3.2 6.4 0.00 0.00 0.00 66 1006.9
20260505193903 15 254 3.2 6.4 0.00 0.00 0.00 66 1006.9
20260505193803 15 248 3.2 4.8 0.00 0.00 0.00 66 1006.9
20260505193703 15 240 3.2 4.8 0.00 0.00 0.00 66 1006.9
20260505193604 15 234 1.6 4.8 0.00 0.00 0.00 65 1006.9
20260505193503 15 229 1.6 4.8 0.00 0.00 0.00 66 1006.9
20260505193403 15 223 1.6 4.8 0.00 0.00 0.00 66 1006.8
20260505193303 15 211 1.6 6.4 0.00 0.00 0.00 66 1006.8
20260505193203 15 205 3.2 6.4 0.00 0.00 0.00 66 1006.8
20260505193103 15 203 3.2 6.4 0.00 0.00 0.00 66 1006.8
20260505193003 15 201 3.2 6.4 0.00 0.00 0.00 66 1006.8
20260505192903 15 196 3.2 6.4 0.00 0.00 0.00 66 1006.7
20260505192803 15 191 1.6 4.8 0.00 0.00 0.00 66 1006.7
20260505192703 15 185 3.2 4.8 0.00 0.00 0.00 67 1006.7
20260505192603 15 182 3.2 4.8 0.00 0.00 0.00 66 1006.7
20260505192503 15 177 3.2 6.4 0.00 0.00 0.00 66 1006.7
20260505192403 15 173 3.2 6.4 0.00 0.00 0.00 65 1006.6
20260505192305 15 171 1.6 6.4 0.00 0.00 0.00 65 1006.6
20260505192204 15 170 1.6 6.4 0.00 0.00 0.00 66 1006.6
20260505192103 15 158 1.6 3.2 0.00 0.00 0.00 68 1006.6
20260505192003 15 150 1.6 4.8 0.00 0.00 0.00 68 1006.6
20260505191903 14 151 3.2 4.8 0.00 0.00 0.00 68 1006.6
20260505191803 14 152 3.2 4.8 0.00 0.00 0.00 68 1006.6
20260505191703 14 153 3.2 4.8 0.00 0.00 0.00 69 1006.6
20260505191603 14 154 1.6 4.8 0.00 0.00 0.00 70 1006.6
20260505191503 14 158 0.0 3.2 0.00 0.00 0.00 70 1006.6
20260505191403 14 160 0.0 1.6 0.00 0.00 0.00 70 1006.6
20260505191303 14 154 0.0 1.6 0.00 0.00 0.00 70 1006.6
20260505191203 14 152 0.0 1.6 0.00 0.00 0.00 70 1006.7
20260505191103 14 147 0.0 3.2 0.00 0.00 0.00 71 1006.7
20260505191003 14 146 1.6 4.8 0.00 0.00 0.00 70 1006.7
20260505190903 14 144 1.6 4.8 0.00 0.00 0.00 70 1006.7
20260505190804 14 144 3.2 4.8 0.00 0.00 0.00 70 1006.7
20260505190703 14 144 3.2 4.8 0.00 0.00 0.00 70 1006.6
20260505190603 14 145 1.6 4.8 0.00 0.00 0.00 70 1006.6
20260505190503 14 148 1.6 3.2 0.00 0.00 0.00 70 1006.6
20260505190404 14 151 0.0 3.2 0.00 0.00 0.00 70 1006.6
20260505190303 14 156 0.0 1.6 0.00 0.00 0.00 70 1006.6
20260505190204 14 176 0.0 1.6 0.00 0.00 0.00 70 1006.5
20260505190103 14 182 0.0 1.6 0.00 0.00 0.00 70 1006.5
20260505190003 14 182 0.0 1.6 0.00 0.00 0.00 70 1006.5
20260505185903 14 182 0.0 1.6 0.00 0.00 0.00 70 1006.5
20260505185803 14 187 0.0 1.6 0.00 0.00 0.00 70 1006.4
20260505185703 14 0 0.0 0.0 0.00 0.00 0.00 69 1006.4
20260505185604 14 0 0.0 0.0 0.00 0.00 0.00 69 1006.5
20260505185503 14 0 0.0 0.0 0.00 0.00 0.00 69 1006.5
20260505185403 14 0 0.0 0.0 0.00 0.00 0.00 69 1006.4
20260505185305 14 0 0.0 0.0 0.00 0.00 0.00 69 1006.4
20260505185203 14 0 0.0 0.0 0.00 0.00 0.00 69 1006.4
20260505185103 15 0 0.0 0.0 0.00 0.00 0.00 69 1006.4
20260505185003 15 0 0.0 0.0 0.00 0.00 0.00 69 1006.4
20260505184903 15 0 0.0 0.0 0.00 0.00 0.00 69 1006.4
20260505184803 15 0 0.0 0.0 0.00 0.00 0.00 69 1006.4
20260505184703 15 0 0.0 0.0 0.00 0.00 0.00 68 1006.4
20260505184603 15 0 0.0 0.0 0.00 0.00 0.00 68 1006.4
20260505184504 15 253 0.0 3.2 0.00 0.00 0.00 67 1006.4
20260505184403 15 256 0.0 3.2 0.00 0.00 0.00 67 1006.4
20260505184303 15 257 0.0 3.2 0.00 0.00 0.00 67 1006.5
20260505184204 15 256 1.6 3.2 0.00 0.00 0.00 67 1006.5
20260505184103 15 255 1.6 4.8 0.00 0.00 0.00 67 1006.5
20260505184003 15 255 3.2 4.8 0.00 0.00 0.00 66 1006.5
20260505183904 15 255 3.2 4.8 0.00 0.00 0.00 66 1006.5
20260505183803 15 257 3.2 4.8 0.00 0.00 0.00 66 1006.5
20260505183703 15 261 3.2 4.8 0.00 0.00 0.00 66 1006.5
20260505183603 15 266 3.2 6.4 0.00 0.00 0.00 66 1006.5
20260505183504 15 267 3.2 6.4 0.00 0.00 0.00 66 1006.5
20260505183403 15 266 4.8 6.4 0.00 0.00 0.00 66 1006.5
20260505183303 15 265 3.2 6.4 0.00 0.00 0.00 66 1006.4
20260505183203 15 263 3.2 6.4 0.00 0.00 0.00 66 1006.5
20260505183104 15 265 3.2 6.4 0.00 0.00 0.00 66 1006.5
20260505183003 15 269 3.2 6.4 0.00 0.00 0.00 65 1006.4
20260505182903 15 272 3.2 6.4 0.00 0.00 0.00 65 1006.4
20260505182804 15 273 3.2 6.4 0.00 0.00 0.00 65 1006.4
20260505182703 15 273 3.2 6.4 0.00 0.00 0.00 65 1006.4
20260505182603 15 274 3.2 6.4 0.00 0.00 0.00 65 1006.4
20260505182503 15 276 3.2 6.4 0.00 0.00 0.00 65 1006.4
20260505182403 15 280 4.8 9.7 0.00 0.00 0.00 65 1006.5
20260505182305 15 283 4.8 9.7 0.00 0.00 0.00 65 1006.5
20260505182203 15 284 6.4 9.7 0.00 0.00 0.00 65 1006.5
20260505182104 15 283 6.4 11.3 0.00 0.00 0.00 65 1006.5
20260505182003 15 280 6.4 11.3 0.00 0.00 0.00 65 1006.5
20260505181903 15 278 6.4 16.1 0.00 0.00 0.00 64 1006.5
20260505181803 15 278 8.0 16.1 0.00 0.00 0.00 64 1006.5
20260505181704 15 280 8.0 16.1 0.00 0.00 0.00 64 1006.5
20260505181603 15 282 8.0 16.1 0.00 0.00 0.00 64 1006.5
20260505181503 15 284 8.0 16.1 0.00 0.00 0.00 63 1006.6
20260505181403 15 289 8.0 14.5 0.00 0.00 0.00 63 1006.6
20260505181303 15 297 8.0 14.5 0.00 0.00 0.00 63 1006.6
20260505181203 15 303 8.0 14.5 0.00 0.00 0.00 63 1006.6
20260505181103 15 308 8.0 14.5 0.00 0.00 0.00 63 1006.6
20260505181003 15 314 8.0 14.5 0.00 0.00 0.00 63 1006.6
20260505180904 15 321 6.4 12.9 0.00 0.00 0.00 64 1006.5
20260505180803 15 328 6.4 12.9 0.00 0.00 0.00 64 1006.4
20260505180703 15 332 6.4 12.9 0.00 0.00 0.00 64 1006.4
20260505180603 16 334 6.4 11.3 0.00 0.00 0.00 63 1006.2
20260505180503 16 335 6.4 11.3 0.00 0.00 0.00 63 1006.1
20260505180403 16 335 6.4 11.3 0.00 0.00 0.00 62 1006.0
20260505180303 16 333 4.8 11.3 0.00 0.00 0.00 62 1006.0
20260505180203 16 333 6.4 11.3 0.00 0.00 0.00 62 1006.0
20260505180103 16 336 6.4 14.5 0.00 0.00 0.00 62 1005.9
20260505180003 16 338 6.4 14.5 0.00 0.00 0.00 62 1005.9
20260505175903 16 339 8.0 16.1 0.00 0.00 0.00 61 1006.0
20260505175803 16 339 9.7 16.1 0.00 0.00 0.00 61 1006.0
20260505175703 16 337 9.7 16.1 0.00 0.00 0.00 61 1006.0
20260505175604 16 334 9.7 16.1 0.00 0.00 0.00 61 1006.0
20260505175503 16 331 8.0 16.1 0.00 0.00 0.00 61 1006.0
20260505175403 16 326 8.0 16.1 0.00 0.00 0.00 61 1006.0
20260505175305 16 320 6.4 12.9 0.00 0.00 0.00 61 1006.0
20260505175203 16 316 6.4 14.5 0.00 0.00 0.00 60 1006.0
20260505175103 16 313 8.0 17.7 0.00 0.00 0.00 60 1006.1
20260505175003 16 310 9.7 17.7 0.00 0.00 0.00 60 1006.1
20260505174903 16 308 11.3 17.7 0.00 0.00 0.00 59 1006.1
20260505174804 16 306 12.9 20.9 0.00 0.00 0.00 59 1006.1
20260505174703 16 304 12.9 20.9 0.00 0.00 0.00 58 1006.1
20260505174603 16 302 12.9 20.9 0.00 0.00 0.00 59 1006.1
20260505174504 16 301 11.3 20.9 0.00 0.00 0.00 59 1006.1
20260505174403 16 300 11.3 19.3 0.00 0.00 0.00 59 1006.0
20260505174303 16 300 11.3 19.3 0.00 0.00 0.00 59 1006.0
20260505174203 16 299 9.7 17.7 0.00 0.00 0.00 59 1006.0
20260505174104 16 299 11.3 27.4 0.00 0.00 0.00 59 1006.0
20260505174003 16 299 11.3 27.4 0.00 0.00 0.00 58 1006.0
20260505173903 16 299 11.3 27.4 0.00 0.00 0.00 58 1006.0
20260505173804 16 298 11.3 27.4 0.00 0.00 0.00 58 1005.9
20260505173703 16 297 9.7 19.3 0.00 0.00 0.00 58 1005.9
20260505173603 16 296 9.7 20.9 0.00 0.00 0.00 57 1005.9
20260505173503 16 297 11.3 22.5 0.00 0.00 0.00 57 1005.8
20260505173404 16 297 12.9 25.7 0.00 0.00 0.00 57 1005.8
20260505173303 16 297 12.9 25.7 0.00 0.00 0.00 57 1005.8
20260505173203 16 296 16.1 29.0 0.00 0.00 0.00 56 1005.8
20260505173103 17 295 16.1 29.0 0.00 0.00 0.00 56 1005.7
20260505173003 17 294 14.5 29.0 0.00 0.00 0.00 56 1005.7
20260505172903 17 290 14.5 29.0 0.00 0.00 0.00 56 1005.7
20260505172803 17 285 12.9 25.7 0.00 0.00 0.00 56 1005.7
20260505172703 17 279 14.5 25.7 0.00 0.00 0.00 56 1005.7
20260505172603 17 276 16.1 25.7 0.00 0.00 0.00 56 1005.7
20260505172503 17 276 17.7 30.6 0.00 0.00 0.00 56 1005.7
20260505172404 17 277 17.7 30.6 0.00 0.00 0.00 56 1005.6
20260505172305 17 280 19.3 33.8 0.00 0.00 0.00 56 1005.6
20260505172203 17 281 19.3 33.8 0.00 0.00 0.00 55 1005.6
20260505172104 17 281 17.7 33.8 0.00 0.00 0.00 55 1005.6
20260505172003 17 279 17.7 33.8 0.00 0.00 0.00 56 1005.6
20260505171903 17 279 17.7 25.7 0.00 0.00 0.00 56 1005.6
20260505171803 17 280 19.3 33.8 0.00 0.00 0.00 55 1005.5
20260505171704 17 281 19.3 38.6 0.00 0.00 0.00 55 1005.5
20260505171603 17 280 19.3 38.6 0.00 0.00 0.00 55 1005.5
20260505171503 17 278 19.3 38.6 0.00 0.00 0.00 55 1005.4
20260505171403 17 276 20.9 41.8 0.00 0.00 0.00 55 1005.4
20260505171303 17 275 20.9 41.8 0.00 0.00 0.00 54 1005.4
20260505171203 17 274 24.1 41.8 0.00 0.00 0.00 54 1005.4
20260505171103 17 274 25.7 41.8 0.00 0.00 0.00 54 1005.4
20260505171004 17 273 25.7 45.1 0.00 0.00 0.00 53 1005.4
20260505170903 18 272 25.7 45.1 0.00 0.00 0.00 52 1005.3
20260505170704 18 272 29.0 48.3 0.00 0.00 0.00 51 1005.2
20260505170603 18 271 27.4 48.3 0.00 0.00 0.00 49 1005.2
20260505170503 18 269 27.4 48.3 0.00 0.00 0.00 49 1005.2
20260505170403 18 265 27.4 48.3 0.00 0.00 0.00 47 1005.1
20260505170303 20 261 20.9 48.3 0.00 0.00 0.00 43 1005.1
20260505170203 20 257 14.5 43.5 0.00 0.00 0.00 41 1005.0
20260505170103 21 252 11.3 43.5 0.00 0.00 0.00 37 1005.0
20260505170003 21 244 6.4 12.9 0.00 0.00 0.00 34 1004.9
20260505165903 21 239 6.4 14.5 0.00 0.00 0.00 35 1004.7
20260505165803 21 236 9.7 16.1 0.00 0.00 0.00 34 1004.7
20260505165704 21 232 8.0 16.1 0.00 0.00 0.00 34 1004.7
20260505165603 21 231 8.0 16.1 0.00 0.00 0.00 34 1004.6
20260505165503 21 232 8.0 16.1 0.00 0.00 0.00 34 1004.6
20260505165404 21 233 6.4 14.5 0.00 0.00 0.00 34 1004.6
20260505165305 21 234 6.4 14.5 0.00 0.00 0.00 34 1004.6
20260505165203 21 236 8.0 14.5 0.00 0.00 0.00 34 1004.6
20260505165103 21 238 8.0 14.5 0.00 0.00 0.00 34 1004.6
20260505165003 21 239 8.0 14.5 0.00 0.00 0.00 34 1004.6
20260505164903 21 240 6.4 12.9 0.00 0.00 0.00 34 1004.6
20260505164803 21 241 6.4 12.9 0.00 0.00 0.00 34 1004.6
20260505164703 21 242 4.8 12.9 0.00 0.00 0.00 34 1004.6
20260505164603 21 244 4.8 12.9 0.00 0.00 0.00 34 1004.6
20260505164503 21 246 6.4 12.9 0.00 0.00 0.00 34 1004.6
20260505164403 21 248 6.4 11.3 0.00 0.00 0.00 34 1004.6
20260505164303 21 247 8.0 14.5 0.00 0.00 0.00 34 1004.6
20260505164203 21 246 8.0 16.1 0.00 0.00 0.00 34 1004.6
20260505164103 21 246 8.0 16.1 0.00 0.00 0.00 34 1004.6
20260505164004 21 245 8.0 16.1 0.00 0.00 0.00 33 1004.6
20260505163903 21 244 6.4 16.1 0.00 0.00 0.00 34 1004.6
20260505163803 21 243 6.4 12.9 0.00 0.00 0.00 33 1004.7
20260505163704 21 242 6.4 12.9 0.00 0.00 0.00 34 1004.7
20260505163603 21 241 8.0 16.1 0.00 0.00 0.00 34 1004.7
20260505163503 21 240 6.4 16.1 0.00 0.00 0.00 34 1004.7
20260505163403 21 239 6.4 16.1 0.00 0.00 0.00 34 1004.7
20260505163304 21 238 6.4 16.1 0.00 0.00 0.00 33 1004.7
20260505163203 21 237 4.8 8.0 0.00 0.00 0.00 33 1004.7
20260505163103 21 237 4.8 8.0 0.00 0.00 0.00 33 1004.7
20260505163004 21 236 4.8 8.0 0.00 0.00 0.00 33 1004.7
20260505162903 21 234 3.2 8.0 0.00 0.00 0.00 33 1004.7
20260505162803 21 229 4.8 14.5 0.00 0.00 0.00 33 1004.7
20260505162703 21 226 4.8 14.5 0.00 0.00 0.00 32 1004.7
20260505162603 21 225 4.8 14.5 0.00 0.00 0.00 33 1004.7
20260505162503 21 225 4.8 14.5 0.00 0.00 0.00 33 1004.7
20260505162403 22 226 4.8 11.3 0.00 0.00 0.00 33 1004.7
20260505162306 22 228 4.8 12.9 0.00 0.00 0.00 33 1004.7
20260505162203 22 228 6.4 14.5 0.00 0.00 0.00 32 1004.9
20260505162103 22 229 8.0 14.5 0.00 0.00 0.00 32 1004.9
20260505162004 22 230 8.0 14.5 0.00 0.00 0.00 32 1004.9
20260505161903 22 231 6.4 14.5 0.00 0.00 0.00 32 1004.9
20260505161803 22 234 6.4 16.1 0.00 0.00 0.00 32 1004.9
20260505161703 22 237 6.4 16.1 0.00 0.00 0.00 32 1004.9
20260505161604 22 240 8.0 19.3 0.00 0.00 0.00 32 1004.9
20260505161503 22 243 9.7 19.3 0.00 0.00 0.00 32 1004.9
20260505161403 22 247 9.7 19.3 0.00 0.00 0.00 32 1004.9
20260505161303 22 250 8.0 19.3 0.00 0.00 0.00 31 1004.9
20260505161203 22 255 8.0 19.3 0.00 0.00 0.00 31 1005.0
20260505161103 22 258 6.4 19.3 0.00 0.00 0.00 31 1005.0
20260505161003 22 260 4.8 19.3 0.00 0.00 0.00 32 1005.0
20260505160903 22 262 4.8 19.3 0.00 0.00 0.00 33 1005.0
20260505160803 22 260 3.2 8.0 0.00 0.00 0.00 31 1005.0
20260505160703 22 259 3.2 8.0 0.00 0.00 0.00 33 1005.0
20260505160604 22 259 4.8 9.7 0.00 0.00 0.00 33 1005.0
20260505160503 22 261 6.4 9.7 0.00 0.00 0.00 32 1005.0
20260505160403 22 263 6.4 9.7 0.00 0.00 0.00 32 1005.0
20260505160303 22 265 6.4 12.9 0.00 0.00 0.00 32 1005.0
20260505160203 22 268 6.4 14.5 0.00 0.00 0.00 33 1005.0
20260505153303 22 305 1.6 4.8 0.00 0.00 0.00 35 1005.0
20260505153203 22 309 1.6 4.8 0.00 0.00 0.00 36 1005.0
20260505153104 22 312 1.6 4.8 0.00 0.00 0.00 35 1005.0
20260505153003 22 318 1.6 4.8 0.00 0.00 0.00 36 1005.0
20260505152903 22 328 0.0 3.2 0.00 0.00 0.00 38 1005.0
20260505152804 22 337 0.0 1.6 0.00 0.00 0.00 40 1005.0
20260505152703 22 350 0.0 3.2 0.00 0.00 0.00 39 1005.0
20260505152604 22 354 1.6 3.2 0.00 0.00 0.00 35 1005.0
20260505152504 22 357 1.6 3.2 0.00 0.00 0.00 36 1005.0
20260505152403 22 358 1.6 3.2 0.00 0.00 0.00 35 1005.1
20260505152305 22 1 3.2 4.8 0.00 0.00 0.00 36 1005.1
20260505152203 22 4 3.2 4.8 0.00 0.00 0.00 39 1005.1
20260505152103 22 8 3.2 4.8 0.00 0.00 0.00 39 1005.1
20260505152003 22 13 3.2 4.8 0.00 0.00 0.00 35 1005.1
20260505151903 22 18 3.2 4.8 0.00 0.00 0.00 34 1005.1
20260505151803 22 22 1.6 4.8 0.00 0.00 0.00 34 1005.1
20260505151703 22 27 1.6 4.8 0.00 0.00 0.00 34 1005.1
20260505151603 22 44 0.0 3.2 0.00 0.00 0.00 34 1005.1
20260505151504 22 47 0.0 3.2 0.00 0.00 0.00 36 1005.1
20260505151403 22 47 0.0 3.2 0.00 0.00 0.00 35 1005.2
20260505151303 22 45 0.0 3.2 0.00 0.00 0.00 34 1005.2
20260505151203 22 42 0.0 1.6 0.00 0.00 0.00 34 1005.2
20260505151103 22 36 0.0 1.6 0.00 0.00 0.00 34 1005.2
20260505151003 22 26 0.0 1.6 0.00 0.00 0.00 34 1005.2
20260505150903 22 17 0.0 3.2 0.00 0.00 0.00 33 1005.2
20260505150803 23 17 0.0 3.2 0.00 0.00 0.00 34 1005.2
20260505150703 23 13 0.0 3.2 0.00 0.00 0.00 34 1005.2
20260505150603 23 6 1.6 3.2 0.00 0.00 0.00 34 1005.2
20260505150504 23 3 1.6 4.8 0.00 0.00 0.00 35 1005.2
20260505150403 23 2 3.2 4.8 0.00 0.00 0.00 35 1005.2
20260505150303 23 1 3.2 4.8 0.00 0.00 0.00 34 1005.2
20260505150203 22 0 1.6 4.8 0.00 0.00 0.00 34 1005.2
20260505140603 22 0 0.0 0.0 0.00 0.00 0.00 37 1005.9
20260505140503 22 0 0.0 0.0 0.00 0.00 0.00 39 1005.9
20260505140403 22 0 0.0 0.0 0.00 0.00 0.00 38 1005.9
20260505140304 22 0 0.0 0.0 0.00 0.00 0.00 36 1005.9
20260505140203 22 246 0.0 1.6 0.00 0.00 0.00 36 1005.9
20260505130303 22 283 3.2 6.4 0.00 0.00 0.00 33 1006.5
20260505130203 22 294 3.2 6.4 0.00 0.00 0.00 34 1006.5
20260505130103 22 303 3.2 8.0 0.00 0.00 0.00 36 1006.5
20260505125003 22 255 1.6 6.4 0.00 0.00 0.00 31 1006.7
20260505124903 22 250 0.0 3.2 0.00 0.00 0.00 31 1006.7
20260505124803 22 254 1.6 3.2 0.00 0.00 0.00 33 1006.7
20260505124704 22 258 1.6 3.2 0.00 0.00 0.00 33 1006.7
20260505124603 22 261 1.6 3.2 0.00 0.00 0.00 32 1006.7
20260505124503 22 265 1.6 3.2 0.00 0.00 0.00 32 1006.7
20260505124403 22 273 1.6 3.2 0.00 0.00 0.00 32 1006.7
20260505124303 22 280 0.0 3.2 0.00 0.00 0.00 32 1006.7
20260505124203 22 290 1.6 8.0 0.00 0.00 0.00 31 1006.7
20260505124103 22 293 3.2 8.0 0.00 0.00 0.00 33 1006.7
20260505124004 22 296 4.8 11.3 0.00 0.00 0.00 33 1006.7
20260505123903 22 296 6.4 11.3 0.00 0.00 0.00 33 1006.7
20260505123803 22 294 8.0 12.9 0.00 0.00 0.00 34 1006.7
20260505123703 22 294 9.7 12.9 0.00 0.00 0.00 35 1006.7
20260505123604 22 292 9.7 12.9 0.00 0.00 0.00 33 1006.8
20260505123503 22 291 8.0 12.9 0.00 0.00 0.00 33 1006.8
20260505123403 22 292 8.0 12.9 0.00 0.00 0.00 33 1006.8
20260505123303 22 291 6.4 11.3 0.00 0.00 0.00 34 1006.7
20260505123203 22 291 6.4 11.3 0.00 0.00 0.00 33 1006.7
20260505123103 22 291 6.4 11.3 0.00 0.00 0.00 33 1006.7
20260505123003 22 291 6.4 11.3 0.00 0.00 0.00 32 1006.7
20260505122904 22 290 6.4 9.7 0.00 0.00 0.00 32 1006.7
20260505122803 22 290 6.4 9.7 0.00 0.00 0.00 32 1006.7
20260505122703 22 290 6.4 9.7 0.00 0.00 0.00 32 1006.7
20260505122603 22 295 8.0 16.1 0.00 0.00 0.00 31 1006.7
20260505122504 22 302 9.7 19.3 0.00 0.00 0.00 33 1006.7
20260505122403 22 304 11.3 20.9 0.00 0.00 0.00 33 1006.7
20260505122305 22 305 11.3 20.9 0.00 0.00 0.00 32 1006.7
20260505122204 22 306 11.3 20.9 0.00 0.00 0.00 32 1006.7
20260505122103 22 305 9.7 20.9 0.00 0.00 0.00 33 1006.7
20260505122003 22 305 8.0 17.7 0.00 0.00 0.00 32 1006.7
20260505121903 22 305 8.0 17.7 0.00 0.00 0.00 31 1006.8
20260505121804 22 304 8.0 17.7 0.00 0.00 0.00 31 1006.7
20260505121703 22 303 6.4 17.7 0.00 0.00 0.00 31 1006.8
20260505121603 22 300 4.8 9.7 0.00 0.00 0.00 32 1006.8
20260505121503 22 299 4.8 9.7 0.00 0.00 0.00 30 1006.8
20260505121403 22 301 4.8 11.3 0.00 0.00 0.00 30 1006.8
20260505121303 22 302 6.4 11.3 0.00 0.00 0.00 30 1006.8
20260505121203 22 305 6.4 11.3 0.00 0.00 0.00 30 1006.8
20260505121104 23 307 4.8 11.3 0.00 0.00 0.00 30 1006.8
20260505121003 23 306 4.8 11.3 0.00 0.00 0.00 30 1006.8
20260505120903 23 302 4.8 11.3 0.00 0.00 0.00 30 1006.8
20260505120803 23 298 4.8 9.7 0.00 0.00 0.00 31 1006.8
20260505120704 22 297 6.4 11.3 0.00 0.00 0.00 30 1006.9
20260505120603 23 297 6.4 11.3 0.00 0.00 0.00 29 1006.9
20260505120503 23 297 6.4 11.3 0.00 0.00 0.00 30 1006.9
20260505120403 23 296 8.0 14.5 0.00 0.00 0.00 31 1006.9
20260505120303 23 294 8.0 14.5 0.00 0.00 0.00 31 1006.9
20260505120203 23 295 9.7 14.5 0.00 0.00 0.00 31 1006.9
20260505120103 22 297 9.7 14.5 0.00 0.00 0.00 30 1006.9
20260505120004 23 300 9.7 14.5 0.00 0.00 0.00 30 1006.9
20260505115903 23 303 8.0 14.5 0.00 0.00 0.00 30 1006.9
20260505115803 23 305 8.0 12.9 0.00 0.00 0.00 30 1006.9
20260505115703 23 303 8.0 14.5 0.00 0.00 0.00 30 1006.9
20260505115603 23 301 8.0 14.5 0.00 0.00 0.00 32 1006.9
20260505115504 22 298 9.7 14.5 0.00 0.00 0.00 30 1006.9
20260505115403 22 297 9.7 14.5 0.00 0.00 0.00 29 1007.0
20260505115305 22 299 9.7 17.7 0.00 0.00 0.00 29 1007.0
20260505115203 23 301 9.7 17.7 0.00 0.00 0.00 30 1007.0
20260505115103 23 304 9.7 17.7 0.00 0.00 0.00 29 1007.0
20260505115003 23 306 9.7 17.7 0.00 0.00 0.00 29 1007.0
20260505114903 23 306 9.7 17.7 0.00 0.00 0.00 29 1007.0
20260505114803 23 304 9.7 16.1 0.00 0.00 0.00 31 1007.0
20260505114703 23 302 8.0 14.5 0.00 0.00 0.00 29 1007.0
20260505114603 23 299 9.7 14.5 0.00 0.00 0.00 29 1007.0
20260505114503 23 297 8.0 14.5 0.00 0.00 0.00 29 1007.1
20260505114403 22 296 6.4 11.3 0.00 0.00 0.00 29 1007.0
20260505114303 23 295 6.4 11.3 0.00 0.00 0.00 29 1007.0
20260505114203 22 296 4.8 11.3 0.00 0.00 0.00 28 1007.1
20260505114103 23 299 4.8 11.3 0.00 0.00 0.00 28 1007.1
20260505114003 23 304 4.8 11.3 0.00 0.00 0.00 30 1007.1
20260505113903 23 309 4.8 11.3 0.00 0.00 0.00 31 1007.0
20260505113803 23 313 3.2 8.0 0.00 0.00 0.00 30 1007.1
20260505113703 23 316 3.2 8.0 0.00 0.00 0.00 31 1007.1
20260505113603 23 318 3.2 8.0 0.00 0.00 0.00 30 1007.1
20260505113503 23 317 4.8 8.0 0.00 0.00 0.00 30 1007.1
20260505113404 23 315 4.8 8.0 0.00 0.00 0.00 30 1007.1
20260505113303 22 309 3.2 6.4 0.00 0.00 0.00 30 1007.1
20260505113203 22 302 4.8 6.4 0.00 0.00 0.00 31 1007.1
20260505113103 22 295 4.8 8.0 0.00 0.00 0.00 30 1007.2
20260505113004 22 290 4.8 8.0 0.00 0.00 0.00 32 1007.2
20260505112903 22 283 4.8 8.0 0.00 0.00 0.00 32 1007.2
20260505112803 21 278 4.8 8.0 0.00 0.00 0.00 32 1007.2
20260505112704 21 270 3.2 8.0 0.00 0.00 0.00 32 1007.2
20260505112603 21 262 4.8 8.0 0.00 0.00 0.00 32 1007.2
20260505112503 21 253 4.8 8.0 0.00 0.00 0.00 32 1007.3
20260505112403 21 249 4.8 8.0 0.00 0.00 0.00 32 1007.3
20260505112305 22 245 4.8 8.0 0.00 0.00 0.00 31 1007.3
20260505112203 22 243 4.8 9.7 0.00 0.00 0.00 31 1007.3
20260505112103 22 243 3.2 9.7 0.00 0.00 0.00 32 1007.3
20260505112004 22 248 3.2 9.7 0.00 0.00 0.00 31 1007.3
20260505111903 22 254 3.2 9.7 0.00 0.00 0.00 31 1007.3
20260505111803 22 263 3.2 8.0 0.00 0.00 0.00 32 1007.3
20260505111703 22 269 3.2 8.0 0.00 0.00 0.00 31 1007.3
20260505111604 22 272 3.2 8.0 0.00 0.00 0.00 31 1007.3
20260505111503 22 272 4.8 12.9 0.00 0.00 0.00 32 1007.3
20260505111403 22 269 6.4 12.9 0.00 0.00 0.00 33 1007.3
20260505111303 22 265 6.4 12.9 0.00 0.00 0.00 34 1007.3
20260505111203 22 261 6.4 12.9 0.00 0.00 0.00 32 1007.3
20260505111103 22 255 6.4 11.3 0.00 0.00 0.00 33 1007.3
20260505111003 22 251 6.4 11.3 0.00 0.00 0.00 34 1007.3
20260505110904 22 247 4.8 9.7 0.00 0.00 0.00 35 1007.3
20260505110803 22 243 4.8 9.7 0.00 0.00 0.00 33 1007.4
20260505110703 22 244 6.4 17.7 0.00 0.00 0.00 32 1007.4
20260505110603 22 247 6.4 17.7 0.00 0.00 0.00 32 1007.4
20260505110504 22 251 8.0 17.7 0.00 0.00 0.00 33 1007.4
20260505110403 22 256 8.0 17.7 0.00 0.00 0.00 31 1007.4
20260505110303 23 261 8.0 12.9 0.00 0.00 0.00 32 1007.4
20260505110203 23 268 8.0 12.9 0.00 0.00 0.00 32 1007.4
20260505102203 21 292 6.4 11.3 0.00 0.00 0.00 38 1008.0
20260505102103 21 293 6.4 11.3 0.00 0.00 0.00 36 1008.0
20260505102004 21 292 8.0 12.9 0.00 0.00 0.00 36 1008.1
20260505101903 21 290 9.7 12.9 0.00 0.00 0.00 36 1008.0
20260505101803 21 288 8.0 12.9 0.00 0.00 0.00 37 1008.1
20260505101704 22 287 6.4 12.9 0.00 0.00 0.00 37 1008.1
20260505101604 22 284 3.2 12.9 0.00 0.00 0.00 37 1008.0
20260505101503 22 283 1.6 6.4 0.00 0.00 0.00 37 1008.0
20260505101403 21 284 1.6 6.4 0.00 0.00 0.00 38 1008.1
20260505101303 21 283 1.6 8.0 0.00 0.00 0.00 38 1008.1
20260505101204 21 287 3.2 8.0 0.00 0.00 0.00 37 1008.1
20260505101103 21 288 3.2 8.0 0.00 0.00 0.00 38 1008.1
20260505101003 21 288 3.2 8.0 0.00 0.00 0.00 37 1008.1
20260505100903 21 290 4.8 8.0 0.00 0.00 0.00 37 1008.1
20260505100803 22 290 3.2 8.0 0.00 0.00 0.00 38 1008.1
20260505100703 22 289 4.8 9.7 0.00 0.00 0.00 39 1008.1
20260505100603 21 288 6.4 12.9 0.00 0.00 0.00 37 1008.2
20260505100504 21 288 4.8 12.9 0.00 0.00 0.00 39 1008.2
20260505100403 21 288 6.4 12.9 0.00 0.00 0.00 38 1008.2
20260505100303 21 288 4.8 12.9 0.00 0.00 0.00 38 1008.2
20260505100203 21 292 3.2 11.3 0.00 0.00 0.00 39 1008.2
20260505100003 21 300 6.4 16.1 0.00 0.00 0.00 37 1008.3
20260505095903 21 300 6.4 16.1 0.00 0.00 0.00 36 1008.3
20260505095804 21 300 8.0 16.1 0.00 0.00 0.00 38 1008.3
20260505095703 21 300 6.4 16.1 0.00 0.00 0.00 37 1008.3
20260505095603 21 299 4.8 11.3 0.00 0.00 0.00 38 1008.3
20260505095504 21 294 6.4 11.3 0.00 0.00 0.00 38 1008.3
20260505095403 21 290 6.4 14.5 0.00 0.00 0.00 40 1008.3
20260505095305 21 286 8.0 14.5 0.00 0.00 0.00 37 1008.3
20260505095203 21 283 9.7 16.1 0.00 0.00 0.00 36 1008.3
20260505095103 21 278 9.7 16.1 0.00 0.00 0.00 36 1008.3
20260505095004 21 274 11.3 17.7 0.00 0.00 0.00 38 1008.3
20260505094903 21 270 9.7 17.7 0.00 0.00 0.00 37 1008.3
20260505094803 21 267 8.0 17.7 0.00 0.00 0.00 37 1008.3
20260505094703 21 266 6.4 17.7 0.00 0.00 0.00 38 1008.3
20260505094604 21 267 4.8 12.9 0.00 0.00 0.00 38 1008.3
20260505094503 21 270 6.4 11.3 0.00 0.00 0.00 37 1008.3
20260505094403 21 272 6.4 11.3 0.00 0.00 0.00 37 1008.3
20260505094303 21 275 4.8 11.3 0.00 0.00 0.00 38 1008.3
20260505094203 21 279 4.8 11.3 0.00 0.00 0.00 38 1008.3
20260505094103 21 280 4.8 9.7 0.00 0.00 0.00 38 1008.3
20260505094003 21 281 6.4 11.3 0.00 0.00 0.00 37 1008.3
20260505093904 21 284 8.0 12.9 0.00 0.00 0.00 34 1008.3
20260505093803 22 287 8.0 14.5 0.00 0.00 0.00 35 1008.4
20260505093703 21 291 9.7 14.5 0.00 0.00 0.00 36 1008.4
20260505093603 21 295 9.7 16.1 0.00 0.00 0.00 35 1008.3
20260505093504 22 297 9.7 16.1 0.00 0.00 0.00 35 1008.3
20260505093403 22 298 8.0 16.1 0.00 0.00 0.00 36 1008.3
20260505093303 22 300 6.4 16.1 0.00 0.00 0.00 38 1008.3
20260505093203 21 298 4.8 14.5 0.00 0.00 0.00 37 1008.3
20260505093103 21 293 4.8 9.7 0.00 0.00 0.00 38 1008.4
20260505093003 21 290 6.4 12.9 0.00 0.00 0.00 37 1008.4
20260505092903 20 288 9.7 14.5 0.00 0.00 0.00 37 1008.4
20260505092804 20 286 9.7 14.5 0.00 0.00 0.00 37 1008.4
20260505092703 21 285 9.7 14.5 0.00 0.00 0.00 37 1008.4
20260505092603 21 284 8.0 14.5 0.00 0.00 0.00 39 1008.4
20260505092503 21 283 6.4 14.5 0.00 0.00 0.00 40 1008.4
20260505092404 21 284 6.4 11.3 0.00 0.00 0.00 41 1008.4
20260505092305 21 283 6.4 11.3 0.00 0.00 0.00 41 1008.4
20260505092203 21 282 6.4 11.3 0.00 0.00 0.00 40 1008.4
20260505092103 21 281 6.4 11.3 0.00 0.00 0.00 41 1008.5
20260505092004 21 279 6.4 11.3 0.00 0.00 0.00 39 1008.5
20260505091903 21 277 6.4 9.7 0.00 0.00 0.00 40 1008.5
20260505091803 21 274 6.4 11.3 0.00 0.00 0.00 41 1008.5
20260505091703 21 270 6.4 11.3 0.00 0.00 0.00 42 1008.5
20260505091603 21 266 6.4 11.3 0.00 0.00 0.00 41 1008.5
20260505091503 21 263 6.4 11.3 0.00 0.00 0.00 40 1008.5
20260505091403 21 260 3.2 9.7 0.00 0.00 0.00 41 1008.5
20260505091304 21 257 3.2 9.7 0.00 0.00 0.00 41 1008.5
20260505091203 21 254 1.6 8.0 0.00 0.00 0.00 40 1008.5
20260505091103 21 260 1.6 6.4 0.00 0.00 0.00 41 1008.5
20260505091003 21 265 3.2 6.4 0.00 0.00 0.00 40 1008.5
20260505090903 21 268 3.2 6.4 0.00 0.00 0.00 40 1008.5
20260505090803 21 272 3.2 6.4 0.00 0.00 0.00 40 1008.5
20260505090703 21 276 1.6 6.4 0.00 0.00 0.00 40 1008.5
20260505090603 21 287 1.6 4.8 0.00 0.00 0.00 42 1008.5
20260505090503 21 290 1.6 6.4 0.00 0.00 0.00 42 1008.6
20260505090403 20 288 3.2 6.4 0.00 0.00 0.00 41 1008.6
20260505090303 20 285 3.2 6.4 0.00 0.00 0.00 41 1008.6
20260505090204 20 280 4.8 9.7 0.00 0.00 0.00 42 1008.6
20260505090003 20 268 6.4 9.7 0.00 0.00 0.00 43 1008.6
20260505085903 20 265 4.8 9.7 0.00 0.00 0.00 42 1008.6
20260505085803 20 260 3.2 8.0 0.00 0.00 0.00 42 1008.6
20260505085703 20 252 3.2 8.0 0.00 0.00 0.00 41 1008.6
20260505085603 20 242 3.2 6.4 0.00 0.00 0.00 41 1008.6
20260505085504 20 235 3.2 6.4 0.00 0.00 0.00 41 1008.6
20260505085403 21 231 3.2 6.4 0.00 0.00 0.00 41 1008.6
20260505085304 21 227 3.2 6.4 0.00 0.00 0.00 41 1008.6
20260505085204 21 226 3.2 6.4 0.00 0.00 0.00 43 1008.6
20260505085103 20 227 3.2 8.0 0.00 0.00 0.00 44 1008.6
20260505085004 20 227 4.8 9.7 0.00 0.00 0.00 44 1008.6
20260505084903 20 226 4.8 9.7 0.00 0.00 0.00 42 1008.6
20260505084803 20 224 4.8 9.7 0.00 0.00 0.00 42 1008.6
20260505084703 20 217 3.2 9.7 0.00 0.00 0.00 43 1008.6
20260505084603 20 211 3.2 6.4 0.00 0.00 0.00 43 1008.6
20260505084503 21 209 1.6 4.8 0.00 0.00 0.00 44 1008.6
20260505084403 20 201 3.2 4.8 0.00 0.00 0.00 45 1008.6
20260505084304 20 189 3.2 8.0 0.00 0.00 0.00 45 1008.6
20260505084203 20 183 3.2 8.0 0.00 0.00 0.00 46 1008.6
20260505084103 20 180 4.8 8.0 0.00 0.00 0.00 45 1008.6
20260505084003 20 174 3.2 8.0 0.00 0.00 0.00 45 1008.6
20260505083903 20 167 3.2 6.4 0.00 0.00 0.00 44 1008.6
20260505083803 20 163 1.6 6.4 0.00 0.00 0.00 44 1008.6
20260505083703 20 157 1.6 4.8 0.00 0.00 0.00 44 1008.6
20260505083603 20 151 1.6 3.2 0.00 0.00 0.00 43 1008.6
20260505083503 20 145 0.0 3.2 0.00 0.00 0.00 44 1008.6
20260505083403 20 151 0.0 3.2 0.00 0.00 0.00 43 1008.6
20260505083304 20 159 1.6 3.2 0.00 0.00 0.00 44 1008.7
20260505083203 20 167 1.6 3.2 0.00 0.00 0.00 44 1008.7
20260505083103 21 169 1.6 3.2 0.00 0.00 0.00 43 1008.7
20260505083003 21 175 1.6 3.2 0.00 0.00 0.00 42 1008.7
20260505082904 20 178 1.6 3.2 0.00 0.00 0.00 43 1008.7
20260505082803 20 184 0.0 1.6 0.00 0.00 0.00 44 1008.7
20260505082703 20 186 0.0 1.6 0.00 0.00 0.00 43 1008.7
20260505082603 20 0 0.0 0.0 0.00 0.00 0.00 44 1008.7
20260505082503 20 214 0.0 1.6 0.00 0.00 0.00 44 1008.7
20260505082403 20 218 0.0 3.2 0.00 0.00 0.00 44 1008.7
20260505082304 20 219 1.6 3.2 0.00 0.00 0.00 43 1008.7
20260505082204 20 220 1.6 3.2 0.00 0.00 0.00 43 1008.7
20260505082103 20 222 1.6 3.2 0.00 0.00 0.00 43 1008.8
20260505082003 20 225 1.6 3.2 0.00 0.00 0.00 43 1008.8
20260505081903 20 230 0.0 3.2 0.00 0.00 0.00 44 1008.8
20260505081804 20 235 0.0 3.2 0.00 0.00 0.00 45 1008.8
20260505081703 20 236 0.0 3.2 0.00 0.00 0.00 46 1008.8
20260505081603 20 236 0.0 3.2 0.00 0.00 0.00 46 1008.8
20260505081503 20 228 1.6 4.8 0.00 0.00 0.00 47 1008.8
20260505081403 19 224 1.6 4.8 0.00 0.00 0.00 46 1008.8
20260505081303 19 217 3.2 6.4 0.00 0.00 0.00 46 1008.9
20260505081203 19 212 3.2 6.4 0.00 0.00 0.00 46 1008.9
20260505081104 19 204 3.2 6.4 0.00 0.00 0.00 47 1008.9
20260505081003 19 198 4.8 6.4 0.00 0.00 0.00 47 1008.9
20260505080903 19 193 3.2 6.4 0.00 0.00 0.00 48 1008.9
20260505080803 19 190 3.2 6.4 0.00 0.00 0.00 49 1008.9
20260505080704 19 182 3.2 6.4 0.00 0.00 0.00 50 1008.9
20260505080603 19 170 3.2 6.4 0.00 0.00 0.00 49 1008.9
20260505080504 18 166 1.6 6.4 0.00 0.00 0.00 49 1008.9
20260505080403 18 162 3.2 6.4 0.00 0.00 0.00 48 1008.9
20260505080303 18 156 1.6 6.4 0.00 0.00 0.00 48 1008.9
20260505080203 19 143 1.6 4.8 0.00 0.00 0.00 48 1008.9
20260505080103 19 135 1.6 4.8 0.00 0.00 0.00 49 1008.9
20260505080003 19 128 3.2 4.8 0.00 0.00 0.00 49 1008.9
20260505075903 18 126 3.2 4.8 0.00 0.00 0.00 49 1008.9
20260505075804 18 119 3.2 4.8 0.00 0.00 0.00 50 1008.9
20260505075703 18 110 1.6 4.8 0.00 0.00 0.00 49 1008.9
20260505075603 18 102 1.6 4.8 0.00 0.00 0.00 50 1008.9
20260505075504 19 96 1.6 4.8 0.00 0.00 0.00 51 1009.0
20260505075404 19 92 1.6 4.8 0.00 0.00 0.00 49 1009.0
20260505075304 19 87 0.0 3.2 0.00 0.00 0.00 50 1009.0
20260505075203 19 87 0.0 3.2 0.00 0.00 0.00 50 1009.0
20260505075104 19 89 0.0 3.2 0.00 0.00 0.00 49 1009.0
20260505075004 19 90 0.0 1.6 0.00 0.00 0.00 50 1009.0
20260505074904 19 90 0.0 1.6 0.00 0.00 0.00 49 1009.0
20260505074803 19 0 0.0 0.0 0.00 0.00 0.00 50 1009.0
20260505074703 19 0 0.0 0.0 0.00 0.00 0.00 49 1009.0
20260505074604 19 0 0.0 0.0 0.00 0.00 0.00 50 1009.0
20260505074504 19 79 0.0 0.0 0.00 0.00 0.00 50 1009.0
20260505074403 19 79 0.0 0.0 0.00 0.00 0.00 50 1009.0
20260505074303 18 79 0.0 0.0 0.00 0.00 0.00 50 1009.0
20260505074203 18 74 0.0 1.6 0.00 0.00 0.00 52 1009.0
20260505074104 18 68 0.0 1.6 0.00 0.00 0.00 51 1009.0
20260505074003 18 69 0.0 1.6 0.00 0.00 0.00 51 1009.0
20260505073903 18 69 0.0 3.2 0.00 0.00 0.00 51 1009.0
20260505073803 18 71 1.6 4.8 0.00 0.00 0.00 52 1009.0
20260505073703 18 75 1.6 4.8 0.00 0.00 0.00 51 1009.0
20260505073603 18 76 3.2 4.8 0.00 0.00 0.00 52 1009.0
20260505073503 18 79 1.6 4.8 0.00 0.00 0.00 51 1009.0
20260505073403 17 83 1.6 4.8 0.00 0.00 0.00 51 1009.0
20260505073303 18 90 0.0 3.2 0.00 0.00 0.00 51 1009.0
20260505073203 18 92 0.0 3.2 0.00 0.00 0.00 51 1009.0
20260505073103 17 93 0.0 3.2 0.00 0.00 0.00 51 1009.0
20260505073004 18 90 0.0 3.2 0.00 0.00 0.00 51 1009.0
20260505072903 18 85 0.0 3.2 0.00 0.00 0.00 50 1009.0
20260505072803 18 81 0.0 3.2 0.00 0.00 0.00 51 1009.0
20260505072703 17 78 1.6 3.2 0.00 0.00 0.00 52 1009.0
20260505072604 18 78 1.6 3.2 0.00 0.00 0.00 52 1009.0
20260505072503 18 79 1.6 3.2 0.00 0.00 0.00 52 1009.0
20260505072403 18 80 1.6 3.2 0.00 0.00 0.00 50 1009.2
20260505072305 18 79 1.6 3.2 0.00 0.00 0.00 51 1009.2
20260505072204 18 76 1.6 4.8 0.00 0.00 0.00 50 1009.2
20260505072103 18 74 1.6 6.4 0.00 0.00 0.00 51 1009.2
20260505072003 17 74 1.6 6.4 0.00 0.00 0.00 52 1009.2
20260505071903 17 73 3.2 6.4 0.00 0.00 0.00 51 1009.2
20260505071804 17 74 3.2 6.4 0.00 0.00 0.00 51 1009.2
20260505071703 17 76 3.2 6.4 0.00 0.00 0.00 51 1009.2
20260505071603 17 78 3.2 6.4 0.00 0.00 0.00 52 1009.2
20260505071503 17 81 1.6 4.8 0.00 0.00 0.00 51 1009.2
20260505071403 17 84 1.6 4.8 0.00 0.00 0.00 50 1009.2
20260505071303 18 88 0.0 3.2 0.00 0.00 0.00 49 1009.2
20260505071203 18 88 0.0 1.6 0.00 0.00 0.00 50 1009.2
20260505071104 18 87 0.0 1.6 0.00 0.00 0.00 50 1009.2
20260505071003 17 0 0.0 1.6 0.00 0.00 0.00 49 1009.2
20260505070903 17 86 0.0 1.6 0.00 0.00 0.00 48 1009.2
20260505070803 17 86 0.0 1.6 0.00 0.00 0.00 49 1009.3
20260505070703 17 86 0.0 1.6 0.00 0.00 0.00 49 1009.3
20260505070603 17 82 0.0 1.6 0.00 0.00 0.00 50 1009.3
20260505070503 18 80 0.0 1.6 0.00 0.00 0.00 50 1009.3
20260505070404 18 77 0.0 1.6 0.00 0.00 0.00 50 1009.3
20260505070303 17 76 0.0 1.6 0.00 0.00 0.00 50 1009.3
20260505070203 17 74 0.0 0.0 0.00 0.00 0.00 51 1009.3
20260505070103 17 74 0.0 0.0 0.00 0.00 0.00 50 1009.3
20260505070003 17 73 0.0 0.0 0.00 0.00 0.00 51 1009.4
20260505065903 17 0 0.0 0.0 0.00 0.00 0.00 52 1009.4
20260505065803 17 0 0.0 0.0 0.00 0.00 0.00 52 1009.4
20260505065704 17 0 0.0 0.0 0.00 0.00 0.00 53 1009.4
20260505065603 17 0 0.0 0.0 0.00 0.00 0.00 53 1009.4
20260505065503 17 0 0.0 1.6 0.00 0.00 0.00 53 1009.4
20260505065403 17 96 0.0 1.6 0.00 0.00 0.00 53 1009.4
20260505065304 17 99 0.0 1.6 0.00 0.00 0.00 55 1009.4
20260505065203 17 99 0.0 1.6 0.00 0.00 0.00 54 1009.4
20260505065103 17 101 0.0 1.6 0.00 0.00 0.00 54 1009.4
20260505065004 17 106 0.0 3.2 0.00 0.00 0.00 55 1009.4
20260505064903 17 108 0.0 3.2 0.00 0.00 0.00 54 1009.4
20260505064803 17 111 1.6 3.2 0.00 0.00 0.00 54 1009.4
20260505064703 17 116 1.6 3.2 0.00 0.00 0.00 54 1009.4
20260505064604 17 125 1.6 3.2 0.00 0.00 0.00 55 1009.4
20260505064503 17 129 1.6 3.2 0.00 0.00 0.00 56 1009.5
20260505064403 16 133 1.6 3.2 0.00 0.00 0.00 57 1009.5
20260505064303 16 135 1.6 3.2 0.00 0.00 0.00 58 1009.5
20260505064204 16 138 0.0 3.2 0.00 0.00 0.00 59 1009.5
20260505064103 16 147 0.0 1.6 0.00 0.00 0.00 59 1009.5
20260505064003 16 157 0.0 1.6 0.00 0.00 0.00 62 1009.5
20260505063903 15 155 1.6 4.8 0.00 0.00 0.00 62 1009.5
20260505063804 15 155 1.6 4.8 0.00 0.00 0.00 62 1009.5
20260505063703 16 155 1.6 4.8 0.00 0.00 0.00 60 1009.5
20260505063603 16 154 1.6 4.8 0.00 0.00 0.00 60 1009.5
20260505063503 16 155 0.0 3.2 0.00 0.00 0.00 59 1009.5
20260505063403 16 158 0.0 1.6 0.00 0.00 0.00 60 1009.5
20260505063303 16 160 0.0 1.6 0.00 0.00 0.00 61 1009.5
20260505063203 16 163 0.0 1.6 0.00 0.00 0.00 61 1009.5
20260505063104 16 166 0.0 1.6 0.00 0.00 0.00 60 1009.5
20260505063004 16 173 0.0 1.6 0.00 0.00 0.00 60 1009.5
20260505062903 16 183 0.0 3.2 0.00 0.00 0.00 61 1009.5
20260505062803 16 188 1.6 3.2 0.00 0.00 0.00 62 1009.5
20260505062703 15 194 1.6 3.2 0.00 0.00 0.00 61 1009.5
20260505062603 15 195 1.6 3.2 0.00 0.00 0.00 61 1009.5
20260505062503 16 200 0.0 3.2 0.00 0.00 0.00 59 1009.5
20260505062403 15 202 0.0 3.2 0.00 0.00 0.00 61 1009.4
20260505062304 15 0 0.0 0.0 0.00 0.00 0.00 61 1009.4
20260505062203 15 0 0.0 0.0 0.00 0.00 0.00 62 1009.4
20260505062103 15 0 0.0 0.0 0.00 0.00 0.00 64 1009.4
20260505062003 14 0 0.0 0.0 0.00 0.00 0.00 65 1009.5
20260505061904 14 175 0.0 1.6 0.00 0.00 0.00 66 1009.5
20260505061803 14 173 0.0 1.6 0.00 0.00 0.00 67 1009.5
20260505061703 13 173 0.0 1.6 0.00 0.00 0.00 66 1009.5
20260505061603 14 163 0.0 1.6 0.00 0.00 0.00 66 1009.5
20260505061503 14 155 0.0 1.6 0.00 0.00 0.00 66 1009.5
20260505061403 14 149 0.0 1.6 0.00 0.00 0.00 66 1009.5
20260505061303 14 144 0.0 1.6 0.00 0.00 0.00 66 1009.5
20260505061204 14 130 0.0 3.2 0.00 0.00 0.00 65 1009.5
20260505061103 14 124 1.6 3.2 0.00 0.00 0.00 65 1009.5
20260505061003 14 120 1.6 3.2 0.00 0.00 0.00 65 1009.5
20260505060903 14 115 1.6 3.2 0.00 0.00 0.00 64 1009.6
20260505060803 14 110 1.6 3.2 0.00 0.00 0.00 65 1009.6
20260505060703 14 102 1.6 3.2 0.00 0.00 0.00 64 1009.6
20260505060603 15 98 1.6 3.2 0.00 0.00 0.00 64 1009.6
20260505060504 15 94 0.0 3.2 0.00 0.00 0.00 64 1009.6
20260505060403 15 92 0.0 1.6 0.00 0.00 0.00 63 1009.6
20260505060303 15 0 0.0 1.6 0.00 0.00 0.00 60 1009.6
20260505060203 16 0 0.0 0.0 0.00 0.00 0.00 60 1009.6
20260505060103 16 0 0.0 0.0 0.00 0.00 0.00 59 1009.6
20260505060003 16 0 0.0 0.0 0.00 0.00 0.00 55 1009.5
20260505055903 16 0 0.0 0.0 0.00 0.00 0.00 54 1009.5
20260505055803 16 0 0.0 0.0 0.00 0.00 0.00 55 1009.5
20260505055704 16 58 0.0 0.0 0.00 0.00 0.00 55 1009.5
20260505055603 16 63 0.0 1.6 0.00 0.00 0.00 55 1009.5
20260505055503 15 68 0.0 1.6 0.00 0.00 0.00 55 1009.5
20260505055403 15 69 0.0 3.2 0.00 0.00 0.00 56 1009.5
20260505055304 15 73 1.6 3.2 0.00 0.00 0.00 57 1009.5
20260505055203 15 75 1.6 3.2 0.00 0.00 0.00 57 1009.5
20260505055103 15 77 1.6 3.2 0.00 0.00 0.00 58 1009.5
20260505055003 15 79 0.0 3.2 0.00 0.00 0.00 59 1009.5
20260505054903 15 79 0.0 3.2 0.00 0.00 0.00 59 1009.5
20260505054803 15 82 0.0 0.0 0.00 0.00 0.00 60 1009.5
20260505054703 15 0 0.0 0.0 0.00 0.00 0.00 61 1009.4
20260505054603 15 0 0.0 0.0 0.00 0.00 0.00 62 1009.4
20260505054503 15 84 0.0 1.6 0.00 0.00 0.00 62 1009.4
20260505054403 14 85 0.0 1.6 0.00 0.00 0.00 61 1009.4
20260505054303 14 85 0.0 1.6 0.00 0.00 0.00 61 1009.4
20260505054203 15 85 0.0 1.6 0.00 0.00 0.00 61 1009.4
20260505054103 14 85 0.0 1.6 0.00 0.00 0.00 61 1009.4
20260505054003 14 0 0.0 0.0 0.00 0.00 0.00 61 1009.4
20260505053904 14 0 0.0 0.0 0.00 0.00 0.00 62 1009.4
20260505053803 14 0 0.0 0.0 0.00 0.00 0.00 62 1009.4
20260505053703 14 0 0.0 0.0 0.00 0.00 0.00 61 1009.4
20260505053603 14 0 0.0 0.0 0.00 0.00 0.00 61 1009.4
20260505053503 14 0 0.0 0.0 0.00 0.00 0.00 61 1009.4
20260505053403 15 0 0.0 0.0 0.00 0.00 0.00 61 1009.5
20260505053303 15 0 0.0 0.0 0.00 0.00 0.00 61 1009.5
20260505053204 15 0 0.0 0.0 0.00 0.00 0.00 61 1009.5
20260505053103 15 0 0.0 0.0 0.00 0.00 0.00 59 1009.5
20260505053003 16 0 0.0 0.0 0.00 0.00 0.00 57 1009.5
20260505052903 16 0 0.0 0.0 0.00 0.00 0.00 58 1009.5
20260505052804 16 0 0.0 0.0 0.00 0.00 0.00 58 1009.5
20260505052703 16 0 0.0 0.0 0.00 0.00 0.00 58 1009.5
20260505052603 16 0 0.0 0.0 0.00 0.00 0.00 57 1009.5
20260505052503 15 0 0.0 0.0 0.00 0.00 0.00 57 1009.5
20260505052404 15 0 0.0 0.0 0.00 0.00 0.00 57 1009.5
20260505052304 15 0 0.0 0.0 0.00 0.00 0.00 58 1009.5
20260505052203 15 0 0.0 0.0 0.00 0.00 0.00 60 1009.5
20260505052103 15 0 0.0 0.0 0.00 0.00 0.00 60 1009.5
20260505052004 15 0 0.0 0.0 0.00 0.00 0.00 59 1009.5
20260505051904 15 0 0.0 0.0 0.00 0.00 0.00 60 1009.5
20260505051803 15 0 0.0 0.0 0.00 0.00 0.00 60 1009.5
20260505051703 15 0 0.0 0.0 0.00 0.00 0.00 60 1009.5
20260505051603 15 0 0.0 0.0 0.00 0.00 0.00 61 1009.4
20260505051504 15 0 0.0 0.0 0.00 0.00 0.00 61 1009.4
20260505051403 15 0 0.0 0.0 0.00 0.00 0.00 61 1009.4
20260505051303 14 0 0.0 0.0 0.00 0.00 0.00 62 1009.4
20260505051203 14 0 0.0 0.0 0.00 0.00 0.00 62 1009.4
20260505051104 14 0 0.0 0.0 0.00 0.00 0.00 62 1009.4
20260505051003 14 0 0.0 0.0 0.00 0.00 0.00 62 1009.4
20260505050903 14 0 0.0 0.0 0.00 0.00 0.00 62 1009.4
20260505050803 15 0 0.0 0.0 0.00 0.00 0.00 61 1009.4
20260505050704 15 0 0.0 0.0 0.00 0.00 0.00 59 1009.4
20260505050603 15 0 0.0 0.0 0.00 0.00 0.00 60 1009.4
20260505050503 15 0 0.0 0.0 0.00 0.00 0.00 59 1009.4
20260505050403 15 0 0.0 0.0 0.00 0.00 0.00 59 1009.4
20260505050303 14 0 0.0 0.0 0.00 0.00 0.00 60 1009.4
20260505050203 13 0 0.0 0.0 0.00 0.00 0.00 60 1009.5
20260505050103 13 0 0.0 0.0 0.00 0.00 0.00 60 1009.5
20260505041704 12 86 1.6 4.8 0.00 0.00 0.00 66 1009.5
20260505041603 12 88 1.6 4.8 0.00 0.00 0.00 66 1009.5
20260505041503 12 91 1.6 3.2 0.00 0.00 0.00 66 1009.5
20260505041403 12 89 1.6 4.8 0.00 0.00 0.00 67 1009.5
20260505041304 12 87 1.6 4.8 0.00 0.00 0.00 68 1009.5
20260505041203 12 84 1.6 4.8 0.00 0.00 0.00 68 1009.5
20260505041103 12 79 1.6 4.8 0.00 0.00 0.00 68 1009.5
20260505041003 12 68 1.6 6.4 0.00 0.00 0.00 67 1009.5
20260505040903 12 65 1.6 6.4 0.00 0.00 0.00 67 1009.5
20260505040803 12 62 3.2 6.4 0.00 0.00 0.00 67 1009.5
20260505040703 12 60 3.2 6.4 0.00 0.00 0.00 67 1009.5
20260505040603 12 58 3.2 4.8 0.00 0.00 0.00 67 1009.5
20260505040503 12 57 1.6 4.8 0.00 0.00 0.00 66 1009.5
20260505040403 12 56 1.6 4.8 0.00 0.00 0.00 65 1009.5
20260505040304 12 57 1.6 3.2 0.00 0.00 0.00 65 1009.6
20260505040203 12 58 1.6 3.2 0.00 0.00 0.00 65 1009.6
20260505040103 12 58 1.6 3.2 0.00 0.00 0.00 64 1009.6
20260505040004 12 59 1.6 3.2 0.00 0.00 0.00 64 1009.6
20260505035904 12 59 1.6 3.2 0.00 0.00 0.00 64 1009.6
20260505035803 12 56 1.6 4.8 0.00 0.00 0.00 64 1009.5
20260505035703 12 54 3.2 4.8 0.00 0.00 0.00 65 1009.5
20260505035603 12 54 3.2 6.4 0.00 0.00 0.00 65 1009.5
20260505035504 12 53 3.2 6.4 0.00 0.00 0.00 65 1009.5
20260505035403 12 52 3.2 6.4 0.00 0.00 0.00 65 1009.5
20260505035304 12 49 4.8 8.0 0.00 0.00 0.00 65 1009.5
20260505035204 12 45 4.8 8.0 0.00 0.00 0.00 66 1009.5
20260505035103 12 40 4.8 8.0 0.00 0.00 0.00 67 1009.5
20260505035003 11 35 3.2 8.0 0.00 0.00 0.00 68 1009.4
20260505034903 11 31 3.2 6.4 0.00 0.00 0.00 70 1009.4
20260505034803 11 25 1.6 4.8 0.00 0.00 0.00 71 1009.4
20260505034703 11 21 0.0 3.2 0.00 0.00 0.00 71 1009.5
20260505034603 11 18 0.0 1.6 0.00 0.00 0.00 70 1009.5
20260505034503 11 18 0.0 1.6 0.00 0.00 0.00 70 1009.5